SR-99 : Kings River Atmospheric Data: 09/21/2021 Summary  Detailed Graphs  Station List

  Temperature     Wind Precipitation Visibility
Timestamp Air Wet
Bulb
Dew-
point
24-hr
Max
24-hr
Min
Relative
Humidity
Atmospheric
Pressure
Avg
Speed
Avg
Dir
Spot
Speed
Spot
Dir
Max
Speed
Max
Dir
  Rate Situation Start End 1 hr 3 hr 6 hr 12 hr 24 hr   Situation
Date Time °F °F °F °F °F % in Hg mph ° mph ° mph ° Y/N in/hr text Date Time Date Time in in in in in mi text
09/21/2021 12:00 AM 65.48 60.08 56.66 86.18 53.24 73.0 29.70 3.58 E 4.25 E 5.37 E x x Other     x x x x x 1.24 Clear
09/21/2021 12:01 AM 65.30 60.08 56.66 86.18 53.24 73.0 29.70 3.58 E 2.46 E 5.37 E x x Other     x x x x x 1.24 Clear
09/21/2021 12:03 AM 65.30 60.08 56.66 86.18 53.24 73.0 29.70 3.58 E 3.13 E 5.14 E x x Other     x x x x x 1.24 Clear
09/21/2021 12:04 AM 65.48 60.08 56.48 86.18 53.24 72.0 29.70 2.68 E 2.91 SE 5.14 E x x Other     x x x x x 1.24 Clear
09/21/2021 12:05 AM 65.66 60.08 56.66 86.18 53.24 72.0 29.70 2.24 E 3.13 E 5.14 E x x Other     x x x x x 1.24 Clear
09/21/2021 12:06 AM 65.84 60.26 56.66 86.18 53.24 72.0 29.70 2.91 E 3.58 E 5.14 E x x Other     x x x x x 1.24 Clear
09/21/2021 12:07 AM 66.02 60.26 56.66 86.18 53.24 71.0 29.70 3.36 E 4.25 E 5.14 E x x Other     x x x x x 1.24 Clear
09/21/2021 12:08 AM 65.84 60.08 56.48 86.18 53.24 72.0 29.70 3.58 E 3.36 E 5.14 E x x Other     x x x x x 1.24 Clear
09/21/2021 12:09 AM 65.66 60.08 56.48 86.18 53.24 72.0 29.70 3.58 E 4.03 E 5.14 E x x Other     x x x x x 1.24 Clear
09/21/2021 12:10 AM 65.66 60.08 56.48 86.18 53.24 72.0 29.70 3.58 E 2.91 E 5.14 E x x Other     x x x x x 1.24 Clear
09/21/2021 12:11 AM 65.48 59.90 56.48 86.18 53.24 72.0 29.70 3.13 E 0.89 SE 5.14 E x x Other     x x x x x 1.24 Clear
09/21/2021 12:12 AM 65.30 59.90 56.66 86.18 53.24 73.0 29.70 2.24 E 2.01 SE 5.14 E x x Other     x x x x x 1.24 Clear
09/21/2021 12:13 AM 65.30 59.90 56.48 86.18 53.24 73.0 29.70 1.12 SE 0.45 SE 5.14 E x x Other     x x x x x 1.24 Clear
09/21/2021 12:14 AM 65.30 59.90 56.48 86.18 53.24 73.0 29.70 1.12 E 2.46 E 5.14 E x x Other     x x x x x 1.24 Clear
09/21/2021 12:15 AM 65.48 60.08 56.48 86.18 53.24 72.0 29.70 1.34 E 2.01 E 5.14 E x x Other     x x x x x 1.24 Clear
09/21/2021 12:16 AM 65.66 60.08 56.48 86.18 53.24 72.0 29.70 2.01 E 3.13 E 5.14 E x x Other     x x x x x 1.24 Clear
09/21/2021 12:17 AM 65.84 60.08 56.66 86.18 53.24 72.0 29.70 2.68 E 1.79 E 4.25 E x x Other     x x x x x 1.24 Clear
09/21/2021 12:18 AM 65.84 60.08 56.48 86.18 53.24 72.0 29.70 2.24 E 1.57 SE 4.25 E x x Other     x x x x x 1.24 Clear
09/21/2021 12:19 AM 65.84 60.08 56.48 86.18 53.24 72.0 29.69 1.34 E 0.45 SE 4.25 E x x Other     x x x x x 1.24 Clear
09/21/2021 12:20 AM 65.84 60.08 56.48 86.18 53.24 72.0 29.70 0.89 SE 0.45 NW 4.25 E x x Other     x x x x x 1.24 Clear
09/21/2021 12:21 AM 65.66 60.08 56.48 86.18 53.24 72.0 29.70 1.12 NW 2.91 NE 4.25 E x x Other     x x x x x 1.24 Clear
09/21/2021 12:22 AM 65.84 60.08 56.66 86.18 53.24 72.0 29.70 2.01 E 3.13 E 4.25 E x x Other     x x x x x 1.24 Clear
09/21/2021 12:23 AM 65.66 60.08 56.48 86.18 53.24 72.0 29.70 2.68 E 3.36 E 4.25 E x x Other     x x x x x 1.24 Clear
09/21/2021 12:24 AM 65.48 60.08 56.48 86.18 53.24 72.0 29.70 2.91 E 2.91 E 4.25 E x x Other     x x x x x 1.24 Clear
09/21/2021 12:25 AM 65.48 59.90 56.48 86.18 53.24 72.0 29.70 2.68 E 2.46 E 3.80 E x x Other     x x x x x 1.24 Clear
09/21/2021 12:26 AM 65.30 59.90 56.48 86.18 53.24 73.0 29.70 2.24 E 2.01 E 3.80 E x x Other     x x x x x 1.24 Clear
09/21/2021 12:27 AM 65.30 59.90 56.48 86.18 53.24 73.0 29.70 2.24 E 1.79 E 3.80 E x x Other     x x x x x 1.24 Clear
09/21/2021 12:28 AM 65.30 59.90 56.48 86.18 53.24 73.0 29.70 2.24 E 2.46 E 3.80 E x x Other     x x x x x 1.24 Clear
09/21/2021 12:29 AM 65.30 59.90 56.48 86.18 53.24 73.0 29.70 2.24 E 2.24 E 3.80 E x x Other     x x x x x 1.24 Clear
09/21/2021 12:30 AM 65.30 59.90 56.48 86.18 53.24 73.0 29.70 2.24 E 2.46 E 3.80 E x x Other     x x x x x 1.24 Clear
09/21/2021 12:31 AM 65.30 59.90 56.48 86.18 53.24 73.0 29.70 2.24 E 1.12 N 3.80 E x x Other     x x x x x 1.24 Clear
09/21/2021 12:32 AM 65.48 59.90 56.48 86.18 53.24 72.0 29.70 2.24 E 2.46 E 3.80 E x x Other     x x x x x 1.24 Clear
09/21/2021 12:33 AM 65.48 59.90 56.48 86.18 53.24 72.0 29.70 2.24 E 2.46 E 3.80 E x x Other     x x x x x 1.24 Clear
09/21/2021 12:34 AM 65.48 59.90 56.48 86.18 53.24 72.0 29.70 2.46 E 1.79 E 3.36 NE x x Other     x x x x x 1.24 Clear
09/21/2021 12:35 AM 65.66 59.90 56.48 86.18 53.24 72.0 29.70 2.24 E 1.34 E 4.25 E x x Other     x x x x x 1.24 Clear
09/21/2021 12:36 AM 65.84 60.08 56.30 86.18 53.24 71.0 29.70 2.01 E 2.01 E 4.25 E x x Other     x x x x x 1.24 Clear
09/21/2021 12:37 AM 66.02 60.08 56.48 86.18 53.24 71.0 29.70 1.79 E 1.57 E 4.25 E x x Other     x x x x x 1.24 Clear
09/21/2021 12:38 AM 66.02 60.08 56.30 86.18 53.24 71.0 29.70 2.24 E 2.68 E 4.25 E x x Other     x x x x x 1.24 Clear
09/21/2021 12:39 AM 65.84 60.08 56.30 86.18 53.24 71.0 29.70 3.36 E 3.36 E 4.25 E x x Other     x x x x x 1.24 Clear
09/21/2021 12:40 AM 65.84 60.08 56.30 86.18 53.24 71.0 29.70 3.36 E 2.91 E 4.25 E x x Other     x x x x x 1.24 Clear
09/21/2021 12:41 AM 65.66 59.90 56.30 86.18 53.24 71.0 29.70 2.68 E 1.79 E 4.25 E x x Other     x x x x x 1.24 Clear
09/21/2021 12:42 AM 65.66 59.90 56.30 86.18 53.24 72.0 29.70 2.46 E 2.68 E 4.25 E x x Other     x x x x x 1.24 Clear
09/21/2021 12:43 AM 65.66 59.90 56.30 86.18 53.24 72.0 29.70 2.46 E 2.46 E 4.25 E x x Other     x x x x x 1.24 Clear
09/21/2021 12:44 AM 65.48 59.90 56.30 86.18 53.24 72.0 29.70 2.68 E 2.46 E 4.25 E x x Other     x x x x x 1.24 Clear
09/21/2021 12:45 AM 65.48 59.90 56.30 86.18 53.24 72.0 29.70 2.46 E 3.80 E 4.25 E x x Other     x x x x x 1.24 Clear
09/21/2021 12:46 AM 65.30 59.90 56.30 86.18 53.24 72.0 29.70 3.13 E 4.03 E 5.14 E x x Other     x x x x x 1.24 Clear
09/21/2021 12:47 AM 65.30 59.90 56.48 86.18 53.24 73.0 29.70 3.36 E 3.36 E 5.14 E x x Other     x x x x x 1.24 Clear
09/21/2021 12:48 AM 65.48 59.90 56.48 86.18 53.24 73.0 29.70 2.91 E 2.91 E 5.14 E x x Other     x x x x x 1.24 Clear
09/21/2021 12:49 AM 65.48 59.90 56.30 86.18 53.24 72.0 29.70 2.91 E 3.58 E 5.14 E x x Other     x x x x x 1.24 Clear
09/21/2021 12:50 AM 65.48 59.90 56.30 86.18 53.24 72.0 29.70 3.13 E 3.58 E 5.14 E x x Other     x x x x x 1.24 Clear
09/21/2021 12:51 AM 65.66 59.90 56.30 86.18 53.24 72.0 29.70 2.91 E 2.68 E 5.14 E x x Other     x x x x x 1.24 Clear
09/21/2021 12:52 AM 65.66 60.08 56.30 86.18 53.24 72.0 29.70 2.68 E 3.13 E 5.14 E x x Other     x x x x x 1.24 Clear
09/21/2021 12:53 AM 65.66 59.90 56.30 86.18 53.24 71.0 29.70 2.68 E 3.13 E 5.14 E x x Other     x x x x x 1.24 Clear
09/21/2021 12:54 AM 65.66 59.90 56.30 86.18 53.24 71.0 29.70 3.13 E 3.36 E 5.14 E x x Other     x x x x x 1.24 Clear
09/21/2021 12:55 AM 65.48 59.72 56.12 86.18 53.24 72.0 29.70 3.13 E 3.13 E 4.47 E x x Other     x x x x x 1.24 Clear
09/21/2021 12:56 AM 65.12 59.72 56.12 86.18 53.24 72.0 29.70 3.58 E 4.25 E 4.47 E x x Other     x x x x x 1.24 Clear
09/21/2021 12:57 AM 65.12 59.54 56.12 86.18 53.24 73.0 29.70 4.25 E 5.37 E 5.37 E x x Other     x x x x x 1.24 Clear
09/21/2021 12:58 AM 64.94 59.36 56.12 x 53.24 73.0 29.70 4.92 E 5.59 E 5.82 E x x Other     x x x x x 1.24 Clear
09/21/2021 12:59 AM 64.76 59.36 55.94 86.18 53.24 74.0 29.70 5.37 E 5.14 E 6.04 E x x Other     x x x x x 1.24 Clear
09/21/2021 01:00 AM 64.40 59.36 55.94 86.18 53.24 75.0 29.70 5.37 E 4.03 E 6.04 E x x Other     x x x x x 1.24 Clear
09/21/2021 01:01 AM 64.22 59.18 56.12 86.18 53.24 75.0 29.70 4.92 E 4.70 E 6.04 E x x Other     x x x x x 1.24 Clear
09/21/2021 01:02 AM 64.04 59.18 56.12 86.18 53.24 75.0 29.70 4.92 E 4.92 E 6.04 E x x Other     x x x x x 1.24 Clear
09/21/2021 01:03 AM 64.04 59.18 56.12 86.18 53.24 75.0 29.70 4.47 E 3.36 E 6.04 E x x Other     x x x x x 1.24 Clear
09/21/2021 01:04 AM 63.86 59.18 56.12 86.18 53.24 76.0 29.70 3.58 E 2.91 SE 6.04 E x x Other     x x x x x 1.24 Clear
09/21/2021 01:05 AM 63.86 59.36 56.12 86.18 53.24 75.0 29.70 2.24 E 1.79 SE 6.04 E x x Other     x x x x x 1.24 Clear
09/21/2021 01:06 AM 64.22 59.36 56.30 86.18 53.24 75.0 29.70 1.57 SE 0.89 E 6.04 E x x Other     x x x x x 1.24 Clear
09/21/2021 01:07 AM 64.40 59.36 56.12 86.18 53.24 75.0 29.70 1.12 E 1.12 SE 6.04 E x x Other     x x x x x 1.24 Clear
09/21/2021 01:08 AM 64.58 59.54 56.12 86.18 53.24 74.0 29.70 1.34 E 2.68 E 5.82 E x x Other     x x x x x 1.24 Clear
09/21/2021 01:09 AM 65.30 59.72 56.30 86.18 53.24 72.0 29.70 2.24 E 2.24 NE 5.59 E x x Other     x x x x x 1.24 Clear
09/21/2021 01:10 AM 65.30 59.72 56.30 86.18 53.24 72.0 29.70 2.68 NE 2.24 NE 5.37 E x x Other     x x x x x 1.24 Clear
09/21/2021 01:11 AM 65.30 59.72 56.30 86.18 53.24 72.0 29.70 2.68 E 2.91 E 5.14 E x x Other     x x x x x 1.24 Clear
09/21/2021 01:12 AM 64.94 59.54 56.12 86.18 53.24 73.0 29.70 3.13 E 3.58 E 4.25 E x x Other     x x x x x 1.24 Clear
09/21/2021 01:13 AM 64.94 59.54 56.12 86.18 53.24 73.0 29.70 3.36 E 2.91 E 4.03 E x x Other     x x x x x 1.24 Clear
09/21/2021 01:14 AM 64.58 59.54 56.12 86.18 53.24 74.0 29.70 3.58 E 3.36 E 4.25 E x x Other     x x x x x 1.24 Clear
09/21/2021 01:15 AM 64.40 59.36 56.12 86.18 53.24 74.0 29.70 2.91 E 2.01 E 4.25 E x x Other     x x x x x 1.24 Clear
09/21/2021 01:16 AM 64.40 59.36 56.12 86.18 53.24 74.0 29.70 2.24 E 2.01 SE 4.25 E x x Other     x x x x x 1.24 Clear
09/21/2021 01:17 AM 64.40 59.36 56.12 86.18 53.24 74.0 29.70 1.79 E 1.57 SE 4.25 E x x Other     x x x x x 1.24 Clear
09/21/2021 01:18 AM 64.58 59.36 56.12 86.18 53.24 73.0 29.70 1.57 SE 2.24 SE 4.25 E x x Other     x x x x x 1.24 Clear
09/21/2021 01:19 AM 64.58 59.36 56.12 86.18 53.24 73.0 29.70 1.34 SE 1.79 E 4.25 E x x Other     x x x x x 1.24 Clear
09/21/2021 01:20 AM 64.40 59.18 55.94 86.18 53.24 74.0 29.70 1.34 E 1.79 E 4.25 E x x Other     x x x x x 1.24 Clear
09/21/2021 01:21 AM 64.22 59.00 55.76 86.18 53.24 74.0 29.70 1.12 E 0.22 SE 4.25 E x x Other     x x x x x 1.24 Clear
09/21/2021 01:22 AM 64.04 59.18 55.94 86.18 53.24 75.0 29.70 0.67 E 0.45 NE 4.25 E x x Other     x x x x x 1.24 Clear
09/21/2021 01:24 AM 64.04 59.18 55.94 86.18 53.24 75.0 29.70 1.12 W 0.22 W 3.13 SE x x Other     x x x x x 1.24 Clear
09/21/2021 01:25 AM 64.04 59.18 55.94 86.18 53.24 75.0 29.70 0.89 W 1.34 SW 3.13 SE x x Other     x x x x x 1.24 Clear
09/21/2021 01:26 AM 63.86 59.00 55.94 86.18 53.24 75.0 29.70 1.12 W 0.67 NW 3.13 W x x Other     x x x x x 1.24 Clear
09/21/2021 01:27 AM 63.68 59.00 55.76 86.18 53.24 75.0 29.70 0.89 W 1.57 NW 3.13 W x x Other     x x x x x 1.24 Clear
09/21/2021 01:28 AM 63.50 59.00 55.94 86.18 53.24 76.0 29.70 0.89 NW 0.67 SE 3.13 W x x Other     x x x x x 1.24 Clear
09/21/2021 01:29 AM 63.68 59.00 56.12 86.18 53.24 76.0 29.70 0.67 NW 0.45 NE 3.13 W x x Other     x x x x x 1.24 Clear
09/21/2021 01:30 AM 63.68 59.18 56.12 86.18 53.24 76.0 29.70 0.67 NE 1.12 W 3.13 W x x Other     x x x x x 1.24 Clear
09/21/2021 01:31 AM 63.68 59.00 56.12 86.18 53.24 76.0 29.71 0.67 NW 0.45 NW 3.13 W x x Other     x x x x x 1.24 Clear
09/21/2021 01:32 AM 63.50 59.00 56.12 86.18 53.24 77.0 29.70 0.89 S 1.34 S 3.13 W x x Other     x x x x x 1.24 Clear
09/21/2021 01:33 AM 63.32 59.00 56.12 86.18 53.24 77.0 29.71 1.34 S 1.57 S 3.13 W x x Other     x x x x x 1.24 Clear
09/21/2021 01:34 AM 63.14 58.82 56.12 86.18 53.24 77.0 29.71 1.12 S 1.34 NW 3.13 W x x Other     x x x x x 1.24 Clear
09/21/2021 01:35 AM 63.14 58.82 56.12 86.18 53.24 77.0 29.70 1.12 S 2.24 NW 2.24 NW x x Other     x x x x x 1.24 Clear
09/21/2021 01:36 AM 63.32 59.00 56.12 86.18 53.24 77.0 29.70 1.34 W 1.12 SW 3.13 W x x Other     x x x x x 1.24 Clear
09/21/2021 01:37 AM 63.50 59.00 56.12 86.18 53.24 77.0 29.71 1.12 SW 2.91 NW 3.13 W x x Other     x x x x x 1.24 Clear
09/21/2021 01:38 AM 63.50 59.00 56.12 86.18 53.24 76.0 29.71 1.12 W 1.34 S 3.13 W x x Other     x x x x x 1.24 Clear
09/21/2021 01:39 AM 63.32 58.82 55.76 86.18 53.24 76.0 29.71 1.57 S 1.57 S 3.13 W x x Other     x x x x x 1.24 Clear
09/21/2021 01:40 AM 62.96 58.64 55.76 86.18 53.24 77.0 29.71 1.12 S 0.89 S 3.13 W x x Other     x x x x x 1.24 Clear
09/21/2021 01:41 AM 62.78 58.64 55.76 86.18 53.24 78.0 29.71 0.89 S 0.89 S 3.13 W x x Other     x x x x x 1.24 Clear
09/21/2021 01:42 AM 62.60 58.64 55.94 86.18 53.24 79.0 29.71 0.89 SE 1.12 SW 3.13 W x x Other     x x x x x 1.24 Clear
09/21/2021 01:43 AM 62.60 58.64 55.94 86.18 53.24 79.0 29.71 0.89 S 0.22 NE 3.13 W x x Other     x x x x x 1.24 Clear
09/21/2021 01:44 AM 62.78 58.64 55.94 86.18 53.24 78.0 29.71 0.89 S 0.67 SW 3.13 W x x Other     x x x x x 1.24 Clear
09/21/2021 01:45 AM 62.60 58.64 55.94 86.18 53.24 78.0 29.71 1.12 SW 1.34 NW 2.91 W x x Other     x x x x x 1.24 Clear
09/21/2021 01:46 AM 62.60 58.64 55.76 86.18 53.24 78.0 29.71 1.79 NW 0.89 NW 3.36 NW x x Other     x x x x x 1.24 Clear
09/21/2021 01:47 AM 62.60 58.46 55.76 86.18 53.24 78.0 29.71 1.57 NW 1.34 SE 3.36 NW x x Other     x x x x x 1.24 Clear
09/21/2021 01:49 AM 62.78 58.64 55.94 86.18 53.24 78.0 29.71 1.34 N 1.79 NW 3.36 NW x x Other     x x x x x 1.24 Clear
09/21/2021 01:50 AM 63.14 58.82 55.94 86.18 53.24 77.0 29.71 1.34 NW 1.79 SE 3.58 NW x x Other     x x x x x 1.24 Clear
09/21/2021 01:51 AM 63.14 58.64 55.76 86.18 53.24 77.0 29.71 1.57 SE 1.34 E 3.58 NW x x Other     x x x x x 1.24 Clear
09/21/2021 01:52 AM 62.78 58.64 55.76 86.18 53.24 77.0 29.71 1.12 SE 1.57 W 3.58 NW x x Other     x x x x x 1.24 Clear
09/21/2021 01:53 AM 62.78 58.64 55.76 86.18 53.24 78.0 29.71 1.12 SE 1.57 SE 3.58 NW x x Other     x x x x x 1.24 Clear
09/21/2021 01:54 AM 62.78 58.64 55.76 86.18 53.24 78.0 29.71 1.12 SE 1.12 SE 3.58 NW x x Other     x x x x x 1.24 Clear
09/21/2021 01:55 AM 62.60 58.46 55.76 86.18 53.24 78.0 29.71 1.12 SE 0.67 S 3.58 NW x x Other     x x x x x 1.24 Clear
09/21/2021 01:56 AM 62.60 58.64 55.94 86.18 53.24 78.0 29.71 1.12 SE 1.79 SE 3.58 NW x x Other     x x x x x 1.24 Clear
09/21/2021 01:57 AM 62.60 58.46 55.76 86.18 53.24 78.0 29.71 1.57 SE 2.91 NW 3.58 NW x x Other     x x x x x 1.24 Clear
09/21/2021 01:58 AM 62.42 58.46 55.76 86.18 53.24 79.0 29.71 1.79 SE 0.67 SW 3.58 NW x x Other     x x x x x 1.24 Clear
09/21/2021 01:59 AM 62.42 58.46 55.76 86.18 53.24 78.0 29.71 1.12 SW 0.22 NW 3.58 NW x x Other     x x x x x 1.24 Clear
09/21/2021 02:00 AM 62.24 58.28 55.76 86.18 53.24 79.0 29.71 1.57 NW 2.46 W 4.70 NW x x Other     x x x x x 1.24 Clear
09/21/2021 02:01 AM 62.42 58.46 55.76 86.18 53.24 79.0 29.71 1.79 W 1.34 NE 4.70 NW x x Other     x x x x x 1.24 Clear
09/21/2021 02:02 AM 62.60 58.46 55.76 86.18 53.24 78.0 29.71 1.57 NW 1.57 NW 4.70 NW x x Other     x x x x x 1.24 Clear
09/21/2021 02:03 AM 62.60 58.46 55.76 86.18 53.24 78.0 29.71 1.57 SW 1.34 SE 4.70 NW x x Other     x x x x x 1.24 Clear
09/21/2021 02:04 AM 62.78 58.64 55.76 86.18 53.24 78.0 29.71 1.79 SE 0.45 NW 4.70 NW x x Other     x x x x x 1.24 Clear
09/21/2021 02:05 AM 62.96 58.82 55.94 86.18 53.24 77.0 29.71 1.57 SE 2.01 SE 4.70 NW x x Other     x x x x x 1.24 Clear
09/21/2021 02:06 AM 62.96 58.64 55.76 86.18 53.24 77.0 29.71 1.57 E 2.46 SE 4.70 NW x x Other     x x x x x 1.24 Clear
09/21/2021 02:07 AM 62.96 58.64 55.76 86.18 53.24 77.0 29.71 1.57 SE 0.89 SE 4.70 NW x x Other     x x x x x 1.24 Clear
09/21/2021 02:08 AM 63.14 58.64 55.76 86.18 53.24 77.0 29.71 1.57 SE 3.36 E 4.70 NW x x Other     x x x x x 1.24 Clear
09/21/2021 02:09 AM 63.32 58.82 55.76 86.18 53.24 76.0 29.71 1.57 E 1.34 E 4.70 NW x x Other     x x x x x 1.24 Clear
09/21/2021 02:10 AM 63.32 58.82 55.76 86.18 53.24 76.0 29.71 2.01 E 3.13 E 3.58 E x x Other     x x x x x 1.24 Clear
09/21/2021 02:11 AM 63.32 58.82 55.76 86.18 53.24 76.0 29.71 2.01 E 1.57 E 3.58 E x x Other     x x x x x 1.24 Clear
09/21/2021 02:12 AM 63.68 58.82 55.76 86.18 53.24 75.0 29.71 1.57 E 1.57 S 3.58 E x x Other     x x x x x 1.24 Clear
09/21/2021 02:13 AM 63.50 58.82 55.58 86.18 53.24 75.0 29.71 1.79 E 2.01 E 3.58 E x x Other     x x x x x 1.24 Clear
09/21/2021 02:14 AM 63.32 58.64 55.58 86.18 53.24 76.0 29.71 1.79 E 0.67 S 3.80 W x x Other     x x x x x 1.24 Clear
09/21/2021 02:15 AM 63.14 58.64 55.58 86.18 53.24 76.0 29.71 1.34 SW 1.12 SW 3.80 W x x Other     x x x x x 1.24 Clear
09/21/2021 02:16 AM 62.78 58.46 55.58 86.18 53.24 77.0 29.71 1.12 SW 1.79 SW 3.80 W x x Other     x x x x x 1.24 Clear
09/21/2021 02:17 AM 62.60 58.46 55.58 86.18 53.24 77.0 29.71 1.12 NW 0.89 NW 3.80 W x x Other     x x x x x 1.24 Clear
09/21/2021 02:18 AM 62.42 58.28 55.58 86.18 53.24 78.0 29.71 1.34 NW 2.46 NW 3.80 W x x Other     x x x x x 1.24 Clear
09/21/2021 02:19 AM 62.24 58.28 55.58 86.18 53.24 78.0 29.71 1.57 NW 1.57 NE 3.80 W x x Other     x x x x x 1.24 Clear
09/21/2021 02:20 AM 62.24 58.28 55.58 86.18 53.24 79.0 29.71 0.89 NW 0.67 E 3.80 W x x Other     x x x x x 1.24 Clear
09/21/2021 02:21 AM 62.24 58.28 55.58 86.18 53.24 78.0 29.71 1.12 NE 2.68 NE 3.80 W x x Other     x x x x x 1.24 Clear
09/21/2021 02:22 AM 62.42 58.46 55.58 86.18 53.24 78.0 29.71 2.01 E 3.80 E 4.03 NE x x Other     x x x x x 1.24 Clear
09/21/2021 02:23 AM 62.60 58.46 55.58 86.18 53.24 78.0 29.71 2.68 E 3.36 NE 4.25 E x x Other     x x x x x 1.24 Clear
09/21/2021 02:24 AM 62.60 58.46 55.58 86.18 53.24 78.0 29.71 2.91 E 2.91 E 4.25 E x x Other     x x x x x 1.24 Clear
09/21/2021 02:25 AM 62.42 58.28 55.40 86.18 53.24 78.0 29.71 2.91 NE 3.13 E 4.25 E x x Other     x x x x x 1.24 Clear
09/21/2021 02:26 AM 62.24 58.28 55.58 86.18 53.24 78.0 29.71 2.68 E 2.24 E 4.25 E x x Other     x x x x x 1.24 Clear
09/21/2021 02:27 AM 62.24 58.28 55.58 86.18 53.24 78.0 29.71 2.24 E 2.46 E 4.25 E x x Other     x x x x x 1.24 Clear
09/21/2021 02:28 AM 62.42 58.28 55.58 86.18 53.24 78.0 29.71 2.01 E 2.01 E 4.25 E x x Other     x x x x x 1.24 Clear
09/21/2021 02:29 AM 62.42 58.28 55.40 86.18 53.24 78.0 29.71 2.01 E 2.91 E 4.25 E x x Other     x x x x x 1.24 Clear
09/21/2021 02:30 AM 62.42 58.10 55.40 86.18 53.24 78.0 29.71 2.68 E 2.24 NE 4.25 E x x Other     x x x x x 1.24 Clear
09/21/2021 02:31 AM 62.42 58.28 55.40 86.18 53.24 78.0 29.71 2.68 E 2.68 E 4.25 E x x Other     x x x x x 1.24 Clear
09/21/2021 02:32 AM 62.24 58.10 55.40 86.18 53.24 78.0 29.71 2.68 E 2.68 E 4.03 E x x Other     x x x x x 1.24 Clear
09/21/2021 02:33 AM 62.24 58.10 55.40 86.18 53.24 78.0 29.71 2.46 E 2.46 E 4.03 E x x Other     x x x x x 1.24 Clear
09/21/2021 02:34 AM 62.06 58.10 55.40 86.18 53.24 79.0 29.71 2.01 E 2.24 E 4.03 E x x Other     x x x x x 1.24 Clear
09/21/2021 02:35 AM 62.06 58.10 55.58 86.18 53.24 79.0 29.71 2.24 E 2.68 E 4.25 E x x Other     x x x x x 1.24 Clear
09/21/2021 02:37 AM 62.06 58.10 55.58 86.18 53.24 79.0 29.71 3.13 E 3.58 E 4.70 E x x Other     x x x x x 1.24 Clear
09/21/2021 02:38 AM 62.24 58.10 55.40 86.18 53.24 78.0 29.71 3.58 E 3.80 E 4.70 E x x Other     x x x x x 1.24 Clear
09/21/2021 02:39 AM 62.06 58.10 55.40 86.18 53.24 78.0 29.71 3.36 E 2.91 E 4.70 E x x Other     x x x x x 1.24 Clear
09/21/2021 02:40 AM 62.06 58.10 55.40 86.18 53.24 78.0 29.71 3.58 E 4.25 E 4.70 E x x Other     x x x x x 1.24 Clear
09/21/2021 02:41 AM 62.24 58.10 55.40 86.18 53.24 78.0 29.71 3.80 E 3.13 NE 4.70 E x x Other     x x x x x 1.24 Clear
09/21/2021 02:42 AM 62.06 58.10 55.22 86.18 53.24 78.0 29.71 4.03 NE 4.25 NE 4.92 NE x x Other     x x x x x 1.24 Clear
09/21/2021 02:43 AM 61.88 57.92 55.22 86.18 53.24 78.0 29.71 4.03 NE 4.25 NE 4.92 E x x Other     x x x x x 1.24 Clear
09/21/2021 02:44 AM 61.70 57.74 55.04 86.18 53.24 79.0 29.71 4.03 E 4.25 E 4.92 E x x Other     x x x x x 1.24 Clear
09/21/2021 02:45 AM 61.70 57.74 55.22 86.18 53.24 79.0 29.71 4.03 E 1.79 E 4.92 E x x Other     x x x x x 1.24 Clear
09/21/2021 02:46 AM 61.70 57.92 55.22 86.18 53.24 79.0 29.71 3.58 E 0.22 SW 4.92 E x x Other     x x x x x 1.24 Clear
09/21/2021 02:47 AM 61.88 57.92 55.22 86.18 53.24 79.0 29.71 3.36 E 2.91 E 4.92 E x x Other     x x x x x 1.24 Clear
09/21/2021 02:48 AM 61.88 57.92 55.22 86.18 53.24 78.0 29.71 3.13 E 2.68 E 4.92 E x x Other     x x x x x 1.24 Clear
09/21/2021 02:49 AM 61.88 57.92 55.22 86.18 53.24 78.0 29.71 3.36 E 3.58 E 4.92 E x x Other     x x x x x 1.24 Clear
09/21/2021 02:50 AM 62.24 58.10 55.22 86.18 53.24 78.0 29.71 4.03 E 5.14 E 5.37 E x x Other     x x x x x 1.24 Clear
09/21/2021 02:51 AM 62.24 57.92 55.04 86.18 53.24 77.0 29.71 4.25 E 3.80 E 5.37 E x x Other     x x x x x 1.24 Clear
09/21/2021 02:52 AM 62.06 57.74 54.86 86.18 53.24 77.0 29.71 3.80 E 3.80 E 5.37 E x x Other     x x x x x 1.24 Clear
09/21/2021 02:53 AM 61.70 57.56 54.86 86.18 53.24 78.0 29.71 3.80 E 4.25 E 5.37 E x x Other     x x x x x 1.24 Clear
09/21/2021 02:54 AM 61.70 57.74 54.86 86.18 53.24 78.0 29.71 4.03 E 4.25 E 5.37 E x x Other     x x x x x 1.24 Clear
09/21/2021 02:55 AM 61.70 57.74 54.86 86.18 53.24 78.0 29.71 3.80 E 3.13 E 5.59 E x x Other     x x x x x 1.24 Clear
09/21/2021 02:56 AM 61.70 57.74 54.86 86.18 53.24 78.0 29.71 3.80 E 3.13 E 5.59 E x x Other     x x x x x 1.24 Clear
09/21/2021 02:57 AM 61.52 57.56 54.68 86.18 53.24 78.0 29.71 3.58 E 3.13 E 5.59 E x x Other     x x x x x 1.24 Clear
09/21/2021 02:58 AM 61.16 57.38 54.86 86.18 53.24 79.0 29.71 3.36 E 3.80 E 5.59 E x x Other     x x x x x 1.24 Clear
09/21/2021 02:59 AM 60.98 57.38 54.86 86.18 53.24 80.0 29.71 3.58 E 3.58 E 5.59 E x x Other     x x x x x 1.24 Clear
09/21/2021 03:00 AM 60.98 57.38 54.68 86.18 53.24 80.0 29.71 4.03 E 4.47 E 5.59 E x x Other     x x x x x 1.24 Clear
09/21/2021 03:01 AM 60.98 57.20 54.68 86.18 53.24 80.0 29.71 4.03 E 4.25 E 5.59 E x x Other     x x x x x 1.24 Clear
09/21/2021 03:02 AM 60.80 57.20 54.86 86.18 53.24 80.0 29.72 4.03 E 4.70 E 5.59 E x x Other     x x x x x 1.24 Clear
09/21/2021 03:03 AM 60.98 57.20 54.68 86.18 53.24 80.0 29.71 4.25 E 4.25 E 5.59 E x x Other     x x x x x 1.24 Clear
09/21/2021 03:04 AM 60.98 57.38 54.86 86.18 53.24 80.0 29.71 4.25 E 4.70 E 4.92 E x x Other     x x x x x 1.24 Clear
09/21/2021 03:05 AM 60.98 57.20 54.68 86.18 53.24 80.0 29.71 3.80 E 3.80 E 5.14 E x x Other     x x x x x 1.24 Clear
09/21/2021 03:06 AM 60.98 57.38 54.86 86.18 53.24 80.0 29.71 3.80 E 3.13 E 5.14 E x x Other     x x x x x 1.24 Clear
09/21/2021 03:07 AM 61.16 57.38 54.68 86.18 53.24 79.0 29.71 3.58 E 3.58 E 5.14 E x x Other     x x x x x 1.24 Clear
09/21/2021 03:08 AM 61.16 57.20 54.50 86.18 53.24 78.0 29.72 3.13 E 2.91 E 5.14 E x x Other     x x x x x 1.24 Clear
09/21/2021 03:09 AM 61.16 57.20 54.50 86.18 53.24 78.0 29.72 2.91 E 1.57 S 5.14 E x x Other     x x x x x 1.24 Clear
09/21/2021 03:10 AM 61.16 57.38 54.68 86.18 53.24 79.0 29.72 3.13 E 2.46 E 5.14 E x x Other     x x x x x 1.24 Clear
09/21/2021 03:11 AM 61.34 57.38 54.68 86.18 53.24 79.0 29.72 3.13 E 3.80 E 5.14 E x x Other     x x x x x 1.24 Clear
09/21/2021 03:12 AM 61.52 57.56 54.68 86.18 53.24 78.0 29.72 3.36 E 3.36 E 5.14 E x x Other     x x x x x 1.24 Clear
09/21/2021 03:13 AM 61.52 57.38 54.68 86.18 53.24 78.0 29.72 3.36 E 3.36 E 5.14 E x x Other     x x x x x 1.24 Clear
09/21/2021 03:14 AM 61.34 57.20 54.32 86.18 53.24 78.0 29.72 2.91 E 3.36 E 5.14 E x x Other     x x x x x 1.24 Clear
09/21/2021 03:15 AM 61.16 57.38 54.68 86.18 53.24 79.0 29.71 2.68 E 3.13 SE 4.92 NE x x Other     x x x x x 1.24 Clear
09/21/2021 03:16 AM 61.16 57.38 54.68 86.18 53.24 79.0 29.72 3.13 E 3.58 E 4.92 NE x x Other     x x x x x 1.24 Clear
09/21/2021 03:17 AM 61.52 57.56 54.86 86.18 53.24 79.0 29.72 3.80 E 2.24 E 5.59 SE x x Other     x x x x x 1.24 Clear
09/21/2021 03:18 AM 61.88 57.74 54.86 86.18 53.24 78.0 29.71 3.80 E 4.03 E 5.59 SE x x Other     x x x x x 1.24 Clear
09/21/2021 03:19 AM 62.24 57.92 55.04 86.18 53.24 77.0 29.72 3.36 E 3.13 E 5.59 SE x x Other     x x x x x 1.24 Clear
09/21/2021 03:20 AM 62.24 57.92 54.86 86.18 53.24 76.0 29.72 3.13 E 2.24 E 5.59 SE x x Other     x x x x x 1.24 Clear
09/21/2021 03:21 AM 61.88 57.56 54.68 86.18 53.24 77.0 29.71 2.91 E 3.58 E 5.59 SE x x Other     x x x x x 1.24 Clear
09/21/2021 03:22 AM 61.52 57.56 54.68 86.18 53.24 78.0 29.72 2.91 E 3.13 E 5.59 SE x x Other     x x x x x 1.24 Clear
09/21/2021 03:23 AM 61.52 57.38 54.68 86.18 53.24 78.0 29.72 3.13 E 2.91 E 5.59 SE x x Other     x x x x x 1.24 Clear
09/21/2021 03:24 AM 61.34 57.38 54.68 86.18 53.24 78.0 29.72 3.13 E 3.80 E 5.59 SE x x Other     x x x x x 1.24 Clear
09/21/2021 03:25 AM 61.34 57.38 54.68 86.18 53.24 79.0 29.72 3.13 E 3.58 E 5.59 SE x x Other     x x x x x 1.24 Clear
09/21/2021 03:26 AM 61.34 57.38 54.68 86.18 53.24 79.0 29.72 2.91 E 2.68 E 4.92 E x x Other     x x x x x 1.24 Clear
09/21/2021 03:27 AM 61.34 57.56 54.86 86.18 53.24 79.0 29.72 2.91 E 1.57 E 4.92 E x x Other     x x x x x 1.24 Clear
09/21/2021 03:28 AM 61.52 57.56 54.86 86.18 53.24 78.0 29.71 3.36 E 3.80 E 4.92 E x x Other     x x x x x 1.24 Clear
09/21/2021 03:30 AM 61.52 57.38 54.68 86.18 53.24 78.0 29.72 3.13 E 2.91 E 4.92 E x x Other     x x x x x 1.24 Clear
09/21/2021 03:31 AM 61.34 57.38 54.68 86.18 53.24 78.0 29.72 2.91 E 3.80 E 4.92 E x x Other     x x x x x 1.24 Clear
09/21/2021 03:32 AM 61.34 57.38 54.68 86.18 53.24 78.0 29.72 3.36 E 4.47 E 5.37 E x x Other     x x x x x 1.24 Clear
09/21/2021 03:33 AM 61.34 57.38 54.68 86.18 53.24 79.0 29.72 3.80 E 3.58 E 5.37 E x x Other     x x x x x 1.24 Clear
09/21/2021 03:34 AM 61.16 57.38 54.68 86.18 53.24 79.0 29.72 3.80 E 3.80 E 5.37 E x x Other     x x x x x 1.24 Clear
09/21/2021 03:35 AM 61.16 57.20 54.68 86.18 53.24 79.0 29.72 3.80 E 3.80 E 5.37 E x x Other     x x x x x 1.24 Clear
09/21/2021 03:36 AM 61.16 57.38 54.68 86.18 53.24 79.0 29.72 4.03 E 4.03 E 5.37 E x x Other     x x x x x 1.24 Clear
09/21/2021 03:37 AM 61.34 57.38 54.68 86.18 53.24 79.0 29.72 4.25 E 4.70 E 5.37 E x x Other     x x x x x 1.24 Clear
09/21/2021 03:38 AM 61.52 57.56 54.68 86.18 53.24 78.0 29.72 3.58 E 2.46 NE 5.37 E x x Other     x x x x x 1.24 Clear
09/21/2021 03:39 AM 61.88 57.56 54.86 86.18 53.24 77.0 29.72 2.91 E 4.70 SE 5.37 E x x Other     x x x x x 1.24 Clear
09/21/2021 03:40 AM 62.06 57.74 54.86 86.18 53.24 77.0 29.72 3.13 E 3.80 E 5.37 E x x Other     x x x x x 1.24 Clear
09/21/2021 03:41 AM 62.06 57.74 54.68 86.18 53.24 77.0 29.72 3.58 E 2.46 E 5.37 E x x Other     x x x x x 1.24 Clear
09/21/2021 03:42 AM 61.88 57.56 54.68 86.18 53.24 77.0 29.72 3.13 E 2.68 E 5.37 E x x Other     x x x x x 1.24 Clear
09/21/2021 03:43 AM 61.70 57.38 54.50 86.18 53.24 77.0 29.72 3.36 E 4.25 E 6.71 E x x Other     x x x x x 1.24 Clear
09/21/2021 03:44 AM 61.70 57.38 54.50 86.18 53.24 77.0 29.72 4.03 E 3.58 E 6.71 E x x Other     x x x x x 1.24 Clear
09/21/2021 03:45 AM 61.52 57.38 54.50 86.18 53.24 77.0 29.72 4.25 E 3.36 E 6.71 E x x Other     x x x x x 1.24 Clear
09/21/2021 03:46 AM 61.70 57.38 54.50 86.18 53.24 77.0 29.72 3.36 E 2.91 E 6.71 E x x Other     x x x x x 1.24 Clear
09/21/2021 03:47 AM 61.70 57.38 54.50 86.18 53.24 77.0 29.72 2.91 E 2.24 E 6.71 E x x Other     x x x x x 1.24 Clear
09/21/2021 03:48 AM 61.70 57.38 54.50 86.18 53.24 77.0 29.72 2.68 E 1.57 E 6.71 E x x Other     x x x x x 1.24 Clear
09/21/2021 03:49 AM 61.52 57.56 54.50 86.18 53.24 77.0 29.72 2.46 E 3.36 E 6.71 E x x Other     x x x x x 1.24 Clear
09/21/2021 03:50 AM 61.70 57.56 54.68 86.18 53.24 78.0 29.72 2.46 E 1.12 NE 6.71 E x x Other     x x x x x 1.24 Clear
09/21/2021 03:51 AM 61.88 57.56 54.68 86.18 53.24 77.0 29.72 2.68 E 3.36 E 6.71 E x x Other     x x x x x 1.24 Clear
09/21/2021 03:52 AM 62.06 57.74 54.68 86.18 53.24 77.0 29.72 3.13 E 2.91 E 6.71 E x x Other     x x x x x 1.24 Clear
09/21/2021 03:53 AM 62.06 57.74 54.68 86.18 53.24 77.0 29.72 3.13 E 3.58 E 5.14 E x x Other     x x x x x 1.24 Clear
09/21/2021 03:54 AM 62.06 57.74 54.68 86.18 53.24 76.0 29.72 3.13 E 2.68 E 4.25 E x x Other     x x x x x 1.24 Clear
09/21/2021 03:55 AM 62.06 57.56 54.68 86.18 53.24 77.0 29.72 3.13 E 3.36 E 4.25 E x x Other     x x x x x 1.24 Clear
09/21/2021 03:56 AM 62.06 57.56 54.68 86.18 53.24 76.0 29.72 2.91 E 2.68 E 4.25 E x x Other     x x x x x 1.24 Clear
09/21/2021 03:57 AM 61.88 57.56 54.68 86.18 53.24 77.0 29.72 2.68 E 3.13 E 4.25 E x x Other     x x x x x 1.24 Clear
09/21/2021 03:58 AM 61.88 57.56 54.68 86.18 53.24 77.0 29.72 2.68 E 3.36 E 4.25 E x x Other     x x x x x 1.24 Clear
09/21/2021 03:59 AM 61.88 57.56 54.68 86.18 53.24 77.0 29.72 3.58 E 3.58 E 6.49 E x x Other     x x x x x 1.24 Clear
09/21/2021 04:00 AM 62.24 57.74 54.68 86.18 53.24 76.0 29.72 4.03 E 3.58 E 6.49 E x x Other     x x x x x 1.24 Clear
09/21/2021 04:01 AM 62.24 57.74 54.68 86.18 53.24 76.0 29.72 3.36 E 3.58 E 6.49 E x x Other     x x x x x 1.24 Clear
09/21/2021 04:02 AM 62.24 57.74 54.68 86.18 53.24 76.0 29.72 2.91 E 3.80 E 6.49 E x x Other     x x x x x 1.24 Clear
09/21/2021 04:03 AM 62.24 57.74 54.68 86.18 53.24 76.0 29.72 3.13 E 2.91 E 6.49 E x x Other     x x x x x 1.24 Clear
09/21/2021 04:04 AM 62.06 57.56 54.50 86.18 53.24 76.0 29.72 3.36 E 3.13 E 6.49 E x x Other     x x x x x 1.24 Clear
09/21/2021 04:05 AM 62.06 57.74 54.68 86.18 53.24 76.0 29.72 3.13 E 2.91 E 6.49 E x x Other     x x x x x 1.24 Clear
09/21/2021 04:06 AM 62.24 57.74 54.68 86.18 53.24 76.0 29.72 2.68 E 3.13 E 6.49 E x x Other     x x x x x 1.24 Clear
09/21/2021 04:07 AM 62.24 57.74 54.68 86.18 53.24 76.0 29.72 2.68 E 2.68 NE 6.49 E x x Other     x x x x x 1.24 Clear
09/21/2021 04:08 AM 62.42 57.74 54.68 86.18 53.24 76.0 29.72 2.91 NE 2.46 NE 5.14 E x x Other     x x x x x 1.24 Clear
09/21/2021 04:09 AM 62.24 57.74 54.50 86.18 53.24 75.0 29.72 2.68 NE 0.45 S 4.70 E x x Other     x x x x x 1.24 Clear
09/21/2021 04:10 AM 62.24 57.74 54.50 86.18 53.24 75.0 29.72 2.46 NE 3.13 NE 4.47 E x x Other     x x x x x 1.24 Clear
09/21/2021 04:11 AM 62.24 57.56 54.50 86.18 53.24 76.0 29.72 2.91 NE 3.58 NE 4.47 E x x Other     x x x x x 1.24 Clear
09/21/2021 04:12 AM 62.06 57.56 54.50 86.18 53.24 76.0 29.72 3.58 NE 4.47 NE 4.47 NE x x Other     x x x x x 1.24 Clear
09/21/2021 04:13 AM 62.06 57.56 54.50 86.18 53.24 76.0 29.72 3.36 NE 3.58 NE 6.26 NW x x Other     x x x x x 1.24 Clear
09/21/2021 04:14 AM 62.24 57.56 54.50 86.18 53.24 76.0 29.72 3.13 NE 3.36 NE 6.26 NW x x Other     x x x x x 1.24 Clear
09/21/2021 04:15 AM 62.24 57.56 54.50 86.18 53.24 76.0 29.72 3.13 NE 1.79 NE 6.26 NW x x Other     x x x x x 1.24 Clear
09/21/2021 04:16 AM 62.24 57.56 54.50 86.18 53.24 76.0 29.72 3.13 NE 2.68 E 6.26 NW x x Other     x x x x x 1.24 Clear
09/21/2021 04:17 AM 62.24 57.56 54.50 86.18 53.24 76.0 29.72 2.68 NE 2.24 E 6.26 NW x x Other     x x x x x 1.24 Clear
09/21/2021 04:18 AM 62.24 57.56 54.50 86.18 53.24 75.0 29.72 2.46 E 3.36 E 6.26 NW x x Other     x x x x x 1.24 Clear
09/21/2021 04:19 AM 62.24 57.56 54.50 86.18 53.24 76.0 29.72 3.13 E 3.36 NE 6.26 NW x x Other     x x x x x 1.24 Clear
09/21/2021 04:20 AM 62.42 57.74 54.50 86.18 53.24 75.0 29.72 3.13 E 2.46 SE 6.26 NW x x Other     x x x x x 1.24 Clear
09/21/2021 04:21 AM 62.60 57.92 54.68 86.18 53.24 75.0 29.72 2.91 E 3.36 E 6.26 NW x x Other     x x x x x 1.24 Clear
09/21/2021 04:22 AM 62.96 57.92 54.68 86.18 53.24 74.0 29.72 2.46 E 2.91 E 4.70 E x x Other     x x x x x 1.24 Clear
09/21/2021 04:23 AM 63.14 58.10 54.68 86.18 53.24 73.0 29.72 2.24 E 1.34 SW 4.70 E x x Other     x x x x x 1.24 Clear
09/21/2021 04:24 AM 63.32 58.10 54.68 86.18 53.24 73.0 29.72 1.79 NE 3.13 E 4.70 E x x Other     x x x x x 1.24 Clear
09/21/2021 04:25 AM 63.32 58.10 54.50 86.18 53.24 73.0 29.72 2.46 E 5.14 E 5.59 E x x Other     x x x x x 1.24 Clear
09/21/2021 04:26 AM 63.14 57.92 54.50 86.18 53.24 73.0 29.72 3.36 E 4.03 E 5.59 E x x Other     x x x x x 1.24 Clear
09/21/2021 04:27 AM 63.14 58.10 54.50 86.18 53.24 73.0 29.72 2.68 E 2.68 E 5.59 E x x Other     x x x x x 1.24 Clear
09/21/2021 04:28 AM 63.32 58.10 54.50 86.18 53.24 73.0 29.72 2.91 E 3.36 E 5.82 E x x Other     x x x x x 1.24 Clear
09/21/2021 04:29 AM 63.50 58.10 54.50 86.18 53.24 72.0 29.72 3.36 E 4.25 E 5.82 E x x Other     x x x x x 1.24 Clear
09/21/2021 04:30 AM 63.50 58.10 54.50 86.18 53.24 72.0 29.72 2.91 E 3.58 E 5.82 E x x Other     x x x x x 1.24 Clear
09/21/2021 04:31 AM 63.50 58.10 54.50 86.18 53.24 72.0 29.72 2.46 E 2.46 E 5.82 E x x Other     x x x x x 1.24 Clear
09/21/2021 04:32 AM 63.50 58.10 54.32 86.18 53.24 72.0 29.72 2.24 E 1.79 E 5.82 E x x Other     x x x x x 1.24 Clear
09/21/2021 04:33 AM 63.50 57.92 54.32 86.18 53.24 72.0 29.72 2.24 E 0.89 W 5.82 E x x Other     x x x x x 1.24 Clear
09/21/2021 04:34 AM 63.32 57.92 54.32 86.18 53.24 72.0 29.72 1.34 NW 0.89 NW 5.82 E x x Other     x x x x x 1.24 Clear
09/21/2021 04:35 AM 63.32 57.92 54.32 86.18 53.24 72.0 29.73 1.34 NW 1.79 E 5.82 E x x Other     x x x x x 1.24 Clear
09/21/2021 04:36 AM 62.96 57.74 54.14 86.18 53.24 73.0 29.73 1.79 N 2.46 NE 5.82 E x x Other     x x x x x 1.24 Clear
09/21/2021 04:37 AM 62.96 57.74 54.14 86.18 53.24 73.0 29.72 1.79 NW 3.58 E 5.82 E x x Other     x x x x x 1.24 Clear
09/21/2021 04:38 AM 62.78 57.74 54.14 86.18 53.24 73.0 29.73 2.46 E 4.70 E 4.47 E x x Other     x x x x x 1.24 Clear
09/21/2021 04:39 AM 62.96 57.74 54.14 86.18 53.24 73.0 29.72 3.36 E 3.13 E 5.37 E x x Other     x x x x x 1.24 Clear
09/21/2021 04:40 AM 62.96 57.74 54.32 86.18 53.24 73.0 29.73 3.13 E 2.24 E 5.37 E x x Other     x x x x x 1.24 Clear
09/21/2021 04:41 AM 62.96 57.74 54.14 86.18 53.24 73.0 29.72 2.68 E 4.47 E 5.37 E x x Other     x x x x x 1.24 Clear
09/21/2021 04:42 AM 62.96 57.74 54.32 86.18 53.24 73.0 29.73 2.91 E 1.79 E 5.37 E x x Other     x x x x x 1.24 Clear
09/21/2021 04:43 AM 62.96 57.92 54.32 86.18 53.24 73.0 29.73 2.91 E 1.79 E 5.37 E x x Other     x x x x x 1.24 Clear
09/21/2021 04:44 AM 63.14 57.92 54.32 86.18 53.24 73.0 29.73 2.91 E 3.58 E 5.37 E x x Other     x x x x x 1.24 Clear
09/21/2021 04:45 AM 63.14 57.92 54.32 86.18 53.24 73.0 29.73 2.68 E 2.01 E 5.37 E x x Other     x x x x x 1.24 Clear
09/21/2021 04:46 AM 63.14 57.92 54.32 86.18 53.24 73.0 29.73 2.24 E 2.68 E 5.37 E x x Other     x x x x x 1.24 Clear
09/21/2021 04:47 AM 63.32 57.92 54.32 86.18 53.24 72.0 29.73 1.79 E 1.34 SE 5.37 E x x Other     x x x x x 1.24 Clear
09/21/2021 04:48 AM 63.14 57.92 54.14 86.18 53.24 72.0 29.73 2.01 E 3.58 E 5.14 E x x Other     x x x x x 1.24 Clear
09/21/2021 04:49 AM 63.14 57.74 54.14 86.18 53.24 72.0 29.73 3.36 E 3.36 E 5.14 E x x Other     x x x x x 1.24 Clear
09/21/2021 04:50 AM 63.32 57.92 54.14 86.18 53.24 72.0 29.73 3.13 E 2.01 E 5.14 E x x Other     x x x x x 1.24 Clear
09/21/2021 04:51 AM 63.50 57.92 53.96 86.18 53.24 71.0 29.73 2.46 E 3.13 E 5.14 E x x Other     x x x x x 1.24 Clear
09/21/2021 04:52 AM 63.50 57.92 53.96 86.18 53.24 71.0 29.73 2.46 E 2.46 E 5.14 E x x Other     x x x x x 1.24 Clear
09/21/2021 04:53 AM 63.50 57.92 54.14 86.18 53.24 71.0 29.73 2.68 E 2.91 E 5.14 E x x Other     x x x x x 1.24 Clear
09/21/2021 04:54 AM 63.32 57.74 53.96 86.18 53.24 71.0 29.73 2.24 E 1.12 E 5.14 E x x Other     x x x x x 1.24 Clear
09/21/2021 04:55 AM 63.32 57.74 53.96 86.18 53.24 71.0 29.73 2.01 E 1.79 E 5.14 E x x Other     x x x x x 1.24 Clear
09/21/2021 04:56 AM 63.68 57.74 53.78 86.18 53.24 70.0 29.73 2.24 E 3.13 E 5.14 E x x Other     x x x x x 1.24 Clear
09/21/2021 04:58 AM 64.04 57.92 53.78 86.18 53.24 69.0 29.73 1.79 SW 1.57 NW 4.70 E x x Other     x x x x x 1.24 Clear
09/21/2021 04:59 AM 63.86 57.74 53.60 86.18 53.24 69.0 29.73 1.79 NW 1.12 E 4.25 E x x Other     x x x x x 1.24 Clear
09/21/2021 05:00 AM 63.50 57.56 53.60 86.18 53.24 70.0 29.73 1.57 SE 1.34 N 4.25 E x x Other     x x x x x 1.24 Clear
09/21/2021 05:01 AM 63.14 57.56 53.60 86.18 53.24 70.0 29.73 1.79 NW 1.57 NW 4.25 E x x Other     x x x x x 1.24 Clear
09/21/2021 05:02 AM 62.78 57.38 53.42 86.18 53.24 71.0 29.73 1.57 NW 0.89 W 4.25 E x x Other     x x x x x 1.24 Clear
09/21/2021 05:03 AM 62.78 57.38 53.60 86.18 53.24 72.0 29.73 1.34 W 2.46 W 4.25 E x x Other     x x x x x 1.24 Clear
09/21/2021 05:04 AM 62.78 57.38 53.60 86.18 53.24 72.0 29.73 2.46 W 0.22 NE 5.59 W x x Other     x x x x x 1.24 Clear
09/21/2021 05:05 AM 62.96 57.38 53.42 86.18 53.24 71.0 29.73 2.91 NW 4.92 NW 5.59 W x x Other     x x x x x 1.24 Clear
09/21/2021 05:06 AM 63.14 57.56 53.60 86.18 53.24 70.0 29.73 2.01 W 1.12 W 5.59 W x x Other     x x x x x 1.24 Clear
09/21/2021 05:07 AM 63.32 57.56 53.60 86.18 53.24 70.0 29.73 1.57 W 2.46 W 5.59 W x x Other     x x x x x 1.24 Clear
09/21/2021 05:08 AM 63.50 57.56 53.42 86.18 53.24 70.0 29.73 2.24 W 3.58 W 5.59 W x x Other     x x x x x 1.24 Clear
09/21/2021 05:09 AM 63.32 57.56 53.42 86.18 53.24 70.0 29.73 2.01 W 0.45 NW 5.59 W x x Other     x x x x x 1.24 Clear
09/21/2021 05:10 AM 62.96 57.20 53.24 86.18 53.24 70.0 29.73 0.89 W 0.22 SW 5.59 W x x Other     x x x x x 1.24 Clear
09/21/2021 05:11 AM 62.42 57.02 53.24 86.18 53.24 71.0 29.73 0.67 NW 1.34 W 5.59 W x x Other     x x x x x 1.24 Clear
09/21/2021 05:12 AM 62.24 56.84 53.06 86.18 53.24 72.0 29.73 1.12 W 1.34 W 5.59 W x x Other     x x x x x 1.24 Clear
09/21/2021 05:13 AM 62.24 57.02 53.24 86.18 53.24 72.0 29.73 1.34 NW 0.45 SW 4.92 NW x x Other     x x x x x 1.24 Clear
09/21/2021 05:14 AM 62.24 57.02 53.24 86.18 53.24 72.0 29.73 1.57 NW 1.34 SW 4.92 NW x x Other     x x x x x 1.24 Clear
09/21/2021 05:15 AM 62.24 57.02 53.24 86.18 53.24 72.0 29.73 1.79 E 1.12 E 4.70 W x x Other     x x x x x 1.24 Clear
09/21/2021 05:16 AM 62.24 57.02 53.24 86.18 53.24 72.0 29.73 0.89 E 0.45 S 4.70 W x x Other     x x x x x 1.24 Clear
09/21/2021 05:18 AM 61.70 56.66 53.24 86.18 53.24 73.0 29.73 1.12 SE 1.12 N 3.80 NW x x Other     x x x x x 1.24 Clear
09/21/2021 05:21 AM 61.34 56.66 53.24 86.18 53.24 74.0 29.73 0.67 S 0.67 W 5.14 W x x Other     x x x x x 1.24 Clear
09/21/2021 05:22 AM 61.16 56.48 53.24 86.18 53.24 75.0 29.73 1.34 N 1.12 NW 5.14 W x x Other     x x x x x 1.24 Clear
09/21/2021 05:23 AM 61.16 56.66 53.42 86.18 53.24 75.0 29.73 1.57 NW 1.79 NW 5.14 W x x Other     x x x x x 1.24 Clear
09/21/2021 05:24 AM 60.98 56.48 53.42 86.18 53.24 76.0 29.73 1.34 NW 0.22 NW 5.14 W x x Other     x x x x x 1.24 Clear
09/21/2021 05:25 AM 60.98 56.48 53.42 86.18 53.24 76.0 29.73 1.12 S 1.12 W 5.14 W x x Other     x x x x x 1.24 Clear
09/21/2021 05:26 AM 61.34 56.66 53.42 86.18 53.24 75.0 29.73 1.79 W 2.46 W 5.14 W x x Other     x x x x x 1.24 Clear
09/21/2021 05:27 AM 61.70 56.84 53.42 86.18 53.24 74.0 29.73 2.68 W 2.01 NW 5.14 W x x Other     x x x x x 1.24 Clear
09/21/2021 05:28 AM 61.70 56.84 53.42 86.18 53.24 74.0 29.73 2.46 W 2.24 W 5.14 W x x Other     x x x x x 1.24 Clear
09/21/2021 05:29 AM 61.52 56.66 53.24 86.18 53.24 74.0 29.73 2.24 W 0.89 W 5.14 W x x Other     x x x x x 1.24 Clear
09/21/2021 05:30 AM 61.70 56.66 53.24 86.18 53.24 74.0 29.73 2.24 NW 3.58 NW 5.37 W x x Other     x x x x x 1.24 Clear
09/21/2021 05:31 AM 61.70 56.66 53.24 86.18 53.24 73.0 29.73 2.68 NW 3.13 W 5.37 W x x Other     x x x x x 1.24 Clear
09/21/2021 05:32 AM 61.88 56.84 53.24 86.18 53.24 73.0 29.73 2.68 W 4.25 NW 5.37 W x x Other     x x x x x 1.24 Clear
09/21/2021 05:33 AM 61.88 56.84 53.24 86.18 53.24 73.0 29.73 2.01 W 0.89 SW 5.37 W x x Other     x x x x x 1.24 Clear
09/21/2021 05:34 AM 61.88 56.84 53.24 86.18 53.24 73.0 29.74 1.57 SW 2.46 W 5.37 W x x Other     x x x x x 1.24 Clear
09/21/2021 05:35 AM 61.52 56.66 53.24 86.18 53.24 74.0 29.74 2.01 SW 3.80 NW 5.37 W x x Other     x x x x x 1.24 Clear
09/21/2021 05:36 AM 61.34 56.48 53.24 86.18 53.24 75.0 29.73 2.01 NW 0.89 SE 5.37 W x x Other     x x x x x 1.24 Clear
09/21/2021 05:37 AM 60.98 56.66 53.42 86.18 53.24 76.0 29.74 1.57 NW 3.13 W 5.37 W x x Other     x x x x x 1.24 Clear
09/21/2021 05:38 AM 60.98 56.66 53.42 86.18 53.24 76.0 29.74 1.34 W 0.89 SW 5.37 W x x Other     x x x x x 1.24 Clear
09/21/2021 05:39 AM 61.16 56.66 53.42 86.18 53.24 76.0 29.73 1.12 SE 0.67 SE 5.37 W x x Other     x x x x x 1.24 Clear
09/21/2021 05:40 AM 61.34 56.66 53.42 86.18 53.24 75.0 29.74 2.01 SE 3.80 NW 5.37 W x x Other     x x x x x 1.24 Clear
09/21/2021 05:41 AM 61.52 56.84 53.42 86.18 53.24 74.0 29.74 2.46 W 0.45 E 5.37 W x x Other     x x x x x 1.24 Clear
09/21/2021 05:42 AM 61.52 56.66 53.42 86.18 53.24 74.0 29.74 2.01 W 3.36 NW 5.37 W x x Other     x x x x x 1.24 Clear
09/21/2021 05:43 AM 61.52 56.66 53.24 86.18 53.24 74.0 29.74 1.79 W 0.22 N 5.37 W x x Other     x x x x x 1.24 Clear
09/21/2021 05:44 AM 61.34 56.66 53.24 86.18 53.24 75.0 29.74 1.57 W 2.24 SW 5.37 W x x Other     x x x x x 1.24 Clear
09/21/2021 05:45 AM 61.16 56.48 53.24 86.18 53.24 75.0 29.74 1.79 W 4.70 W 5.37 W x x Other     x x x x x 1.24 Clear
09/21/2021 05:46 AM 61.34 56.66 53.24 86.18 53.24 75.0 29.74 2.68 W 2.24 W 5.37 W x x Other     x x x x x 1.24 Clear
09/21/2021 05:47 AM 61.52 56.66 53.42 86.18 53.24 74.0 29.74 2.24 W 1.79 SE 5.37 W x x Other     x x x x x 1.24 Clear
09/21/2021 05:48 AM 61.70 56.84 53.42 86.18 53.24 74.0 29.74 1.57 SE 0.67 SW 5.37 W x x Other     x x x x x 1.24 Clear
09/21/2021 05:49 AM 62.06 57.02 53.42 86.18 53.24 73.0 29.74 2.46 E 4.70 E 5.82 E x x Other     x x x x x 1.24 Clear
09/21/2021 05:50 AM 62.42 57.20 53.42 86.18 53.24 72.0 29.74 3.58 E 3.58 E 6.71 E x x Other     x x x x x 1.24 Clear
09/21/2021 05:51 AM 62.60 57.20 53.42 86.18 53.24 72.0 29.74 3.13 E 2.91 SE 6.71 E x x Other     x x x x x 1.24 Clear
09/21/2021 05:52 AM 62.60 57.20 53.24 86.18 53.24 71.0 29.74 2.68 E 4.25 E 6.71 E x x Other     x x x x x 1.24 Clear
09/21/2021 05:53 AM 62.60 57.20 53.24 86.18 53.24 71.0 29.74 2.68 E 4.03 SE 6.71 E x x Other     x x x x x 1.24 Clear
09/21/2021 05:54 AM 62.96 57.20 53.42 86.18 53.24 71.0 29.74 2.01 E 2.01 N 6.71 E x x Other     x x x x x 1.24 Clear
09/21/2021 05:55 AM 62.96 57.38 53.42 86.18 53.24 71.0 29.74 1.79 NW 3.13 NW 6.71 E x x Other     x x x x x 1.24 Clear
09/21/2021 05:56 AM 62.78 57.20 53.42 86.18 53.24 71.0 29.74 2.01 NW 1.79 NW 6.71 E x x Other     x x x x x 1.24 Clear
09/21/2021 05:57 AM 62.78 57.20 53.42 86.18 53.24 71.0 29.74 2.24 NW 3.58 N 6.71 E x x Other     x x x x x 1.24 Clear
09/21/2021 05:58 AM 62.96 57.20 53.24 86.18 53.24 71.0 29.74 2.46 E 0.67 NE 6.71 E x x Other     x x x x x 1.24 Clear
09/21/2021 05:59 AM 62.78 57.20 53.24 86.18 53.24 71.0 29.74 2.46 NE 3.58 W 6.04 E x x Other     x x x x x 1.24 Clear
09/21/2021 06:00 AM 62.60 57.02 53.24 86.18 53.24 71.0 29.74 3.36 NW 4.92 NW 7.83 NW x x Other     x x x x x 1.24 Clear
09/21/2021 06:01 AM 62.42 56.84 53.06 86.18 53.24 71.0 29.74 4.47 NW 2.68 W 8.95 W x x Other     x x x x x 1.24 Clear
09/21/2021 06:02 AM 62.24 56.84 53.06 86.18 53.24 72.0 29.74 3.80 W 3.13 NW 8.95 W x x Other     x x x x x 1.24 Clear
09/21/2021 06:03 AM 62.06 56.84 53.06 86.18 53.24 72.0 29.74 3.13 NW 2.91 NW 8.95 W x x Other     x x x x x 1.24 Clear
09/21/2021 06:04 AM 62.06 56.84 53.06 86.18 53.24 72.0 29.74 3.58 NW 2.24 W 8.95 W x x Other     x x x x x 1.24 Clear
09/21/2021 06:05 AM 62.06 56.84 53.06 86.18 53.24 72.0 29.74 3.13 NW 2.91 W 8.95 W x x Other     x x x x x 1.24 Clear
09/21/2021 06:06 AM 61.88 56.66 53.06 86.18 53.24 73.0 29.74 3.13 NW 3.80 W 8.95 W x x Other     x x x x x 1.24 Clear
09/21/2021 06:07 AM 61.88 56.66 53.06 86.18 53.24 72.0 29.74 2.68 NW 0.00 E 8.95 W x x Other     x x x x x 1.24 Clear
09/21/2021 06:08 AM 62.06 56.84 53.06 86.18 53.24 72.0 29.74 1.79 NW 2.46 W 8.95 W x x Other     x x x x x 1.24 Clear
09/21/2021 06:09 AM 62.24 56.84 53.06 86.18 53.24 72.0 29.75 2.68 W 6.26 W 8.95 W x x Other     x x x x x 1.24 Clear
09/21/2021 06:10 AM 62.06 56.84 53.06 86.18 53.24 72.0 29.74 3.58 W 1.79 NW 8.95 W x x Other     x x x x x 1.24 Clear
09/21/2021 06:11 AM 61.70 56.48 52.88 86.18 53.24 73.0 29.74 2.46 NW 1.57 NW 8.95 W x x Other     x x x x x 1.24 Clear
09/21/2021 06:12 AM 61.16 56.30 52.88 86.18 53.24 74.0 29.75 1.79 W 3.58 NW 8.95 W x x Other     x x x x x 1.24 Clear
09/21/2021 06:13 AM 60.80 56.30 52.88 86.18 53.24 75.0 29.75 2.24 W 4.25 NW 8.95 W x x Other     x x x x x 1.24 Clear
09/21/2021 06:14 AM 60.98 56.30 53.06 86.18 53.24 75.0 29.75 2.68 W 2.68 W 8.95 W x x Other     x x x x x 1.24 Clear
09/21/2021 06:15 AM 60.80 56.30 53.24 86.18 53.24 76.0 29.75 2.46 W 1.12 SW 8.95 W x x Other     x x x x x 1.24 Clear
09/21/2021 06:16 AM 60.80 56.30 53.06 86.18 53.24 75.0 29.75 1.79 W 1.12 SW 8.95 W x x Other     x x x x x 1.24 Clear
09/21/2021 06:17 AM 60.80 56.30 53.06 86.18 53.24 75.0 29.75 1.57 NW 2.46 W 8.95 W x x Other     x x x x x 1.24 Clear
09/21/2021 06:18 AM 61.16 56.48 53.06 86.18 53.24 75.0 29.75 1.57 W 1.57 NW 8.95 W x x Other     x x x x x 1.24 Clear
09/21/2021 06:19 AM 61.52 56.66 53.24 86.18 53.24 74.0 29.75 1.79 W 1.57 W 4.92 NW x x Other     x x x x x 1.24 Clear
09/21/2021 06:20 AM 61.34 56.48 53.06 86.18 53.24 74.0 29.75 2.24 W 1.12 SW 4.92 NW x x Other     x x x x x 1.24 Clear
09/21/2021 06:21 AM 60.80 56.12 52.88 86.18 53.24 75.0 29.75 1.79 W 0.67 S 4.92 NW x x Other     x x x x x 1.24 Clear
09/21/2021 06:22 AM 60.08 55.94 52.88 86.18 53.24 77.0 29.75 0.89 S 0.89 SW 4.92 NW x x Other     x x x x x 1.24 Clear
09/21/2021 06:23 AM 59.72 55.76 53.06 86.18 53.24 78.0 29.75 0.89 SE 1.12 W 3.80 W x x Other     x x x x x 1.24 Clear
09/21/2021 06:24 AM 59.90 55.94 53.24 86.18 53.24 78.0 29.75 1.79 SW 3.58 W 4.92 W x x Other     x x x x x 1.24 Clear
09/21/2021 06:25 AM 60.08 56.12 53.24 86.18 53.24 77.0 29.75 2.91 W 3.36 NW 5.37 NW x x Other     x x x x x 1.24 Clear
09/21/2021 06:26 AM 60.44 56.30 53.24 86.18 53.24 77.0 29.75 2.46 NW 2.46 W 5.37 NW x x Other     x x x x x 1.24 Clear
09/21/2021 06:27 AM 60.44 56.30 53.24 86.18 53.24 76.0 29.75 2.46 NW 2.91 SW 5.37 NW x x Other     x x x x x 1.24 Clear
09/21/2021 06:28 AM 60.44 56.12 53.06 86.18 53.24 76.0 29.75 2.68 NW 1.12 W 5.37 NW x x Other     x x x x x 1.24 Clear
09/21/2021 06:29 AM 60.44 56.30 53.06 86.18 53.96 76.0 29.75 2.24 W 4.47 W 5.82 W x x Other     x x x x x 1.24 Clear
09/21/2021 06:30 AM 60.62 56.30 53.06 86.18 53.96 76.0 29.75 2.68 W 2.01 W 5.82 W x x Other     x x x x x 1.24 Clear
09/21/2021 06:31 AM 60.98 56.30 53.06 86.18 53.96 75.0 29.75 2.91 W 3.58 W 5.82 W x x Other     x x x x x 1.24 Clear
09/21/2021 06:32 AM 60.80 56.12 52.88 86.18 53.96 75.0 29.75 3.13 W 4.03 W 5.82 W x x Other     x x x x x 1.24 Clear
09/21/2021 06:33 AM 60.80 55.94 52.88 86.18 53.96 75.0 29.75 3.58 NW 6.26 W 10.07 NW x x Other     x x x x x 1.24 Clear
09/21/2021 06:34 AM 60.98 56.30 52.88 86.18 53.96 74.0 29.75 4.47 NW 4.47 NW 10.07 NW x x Other     x x x x x 1.24 Clear
09/21/2021 06:35 AM 60.98 56.30 52.88 86.18 53.96 x 29.75 3.58 NW 1.79 NW 10.07 NW x x Other     x x x x x 1.24 Clear
09/21/2021 06:36 AM 61.34 56.30 52.88 86.18 53.96 74.0 29.75 1.79 NW 0.89 NE 10.07 NW x x Other     x x x x x 1.24 Clear
09/21/2021 06:37 AM 61.16 56.30 53.06 86.18 53.96 74.0 29.76 1.57 W 2.01 W 10.07 NW x x Other     x x x x x 1.24 Clear
09/21/2021 06:38 AM 61.16 56.30 53.06 86.18 53.96 74.0 29.75 1.57 NW 1.12 S 10.07 NW x x Other     x x x x x 1.24 Clear
09/21/2021 06:39 AM 61.16 56.30 52.88 86.18 53.96 74.0 29.75 1.79 SE 3.58 SE 10.07 NW x x Other     x x x x x 1.24 Clear
09/21/2021 06:40 AM 61.34 56.48 53.06 86.18 53.96 74.0 29.75 2.01 SE 2.24 S 10.07 NW x x Other     x x x x x 1.24 Clear
09/21/2021 06:41 AM 61.34 56.48 52.88 86.18 53.96 73.0 29.75 1.34 SE 1.12 S 10.07 NW x x Other     x x x x x 1.24 Clear
09/21/2021 06:42 AM 60.80 56.12 52.70 86.18 53.96 74.0 29.75 2.01 W 3.58 NW 10.07 NW x x Other     x x x x x 1.24 Clear
09/21/2021 06:43 AM 60.80 56.12 52.70 86.18 53.96 74.0 29.75 2.24 W 0.89 NW 6.26 W x x Other     x x x x x 1.24 Clear
09/21/2021 06:44 AM 60.44 55.94 52.52 86.18 53.96 75.0 29.75 2.46 NW 2.24 NW 4.70 NW x x Other     x x x x x 1.24 Clear
09/21/2021 06:45 AM 60.44 55.94 52.88 86.18 53.96 76.0 29.75 2.46 NW 1.57 NW 4.70 NW x x Other     x x x x x 1.24 Clear
09/21/2021 06:46 AM 60.80 56.12 52.70 86.18 53.96 75.0 29.75 1.79 SW 4.03 W 4.70 NW x x Other     x x x x x 1.24 Clear
09/21/2021 06:47 AM 60.44 55.94 52.70 86.18 53.96 75.0 29.76 2.01 SW 1.79 SW 6.04 W x x Other     x x x x x 1.24 Clear
09/21/2021 06:48 AM 60.62 56.12 52.88 86.18 53.96 76.0 29.76 2.46 W 2.24 S 6.04 W x x Other     x x x x x 1.24 Clear
09/21/2021 06:49 AM 60.80 56.30 52.88 86.18 53.96 75.0 29.76 1.34 S 0.89 SE 6.04 W x x Other     x x x x x 1.24 Clear
09/21/2021 06:50 AM 60.44 56.12 52.88 86.18 53.96 76.0 29.76 1.57 S 2.46 NW 6.04 W x x Other     x x x x x 1.24 Clear
09/21/2021 06:51 AM 60.44 56.12 53.06 86.18 53.96 76.0 29.76 2.46 W 0.22 W 6.04 W x x Other     x x x x x 1.24 Clear
09/21/2021 06:52 AM 60.44 56.12 53.06 86.18 53.96 76.0 29.76 1.79 NW 1.12 S 6.04 W x x Other     x x x x x 1.24 Clear
09/21/2021 06:53 AM 60.44 56.12 53.06 86.18 53.96 76.0 29.76 2.01 W 6.04 W 6.04 W x x Other     x x x x x 1.24 Clear
09/21/2021 06:54 AM 60.62 56.12 53.06 86.18 53.96 76.0 29.76 3.36 NW 0.89 NW 6.04 W x x Other     x x x x x 1.24 Clear
09/21/2021 06:55 AM 60.80 56.30 52.88 86.18 53.96 75.0 29.76 2.46 NW 1.57 N 6.04 W x x Other     x x x x x 1.24 Clear
09/21/2021 06:56 AM 60.80 56.12 52.88 86.18 53.96 75.0 29.76 1.34 SE 0.89 SE 6.04 W x x Other     x x x x x 1.24 Clear
09/21/2021 06:57 AM 60.98 56.30 52.88 86.18 53.96 74.0 29.76 2.24 S 3.58 W 8.72 NW x x Other     x x x x x 1.24 Clear
09/21/2021 06:58 AM 61.34 56.48 52.88 86.18 53.96 74.0 29.76 3.36 NW 2.24 NW 8.72 NW x x Other     x x x x x 1.24 Clear
09/21/2021 06:59 AM 61.34 56.48 52.88 86.18 53.96 74.0 29.76 3.58 NW 2.24 W 8.72 NW x x Other     x x x x x 1.24 Clear
09/21/2021 07:00 AM 61.34 56.30 52.88 86.18 53.96 73.0 29.76 2.46 NW 1.12 S 8.72 NW x x Other     x x x x x 1.24 Clear
09/21/2021 07:01 AM 61.16 56.12 52.70 86.18 53.96 73.0 29.76 1.57 S 0.89 S 8.72 NW x x Other     x x x x x 1.24 Clear
09/21/2021 07:02 AM 60.98 56.12 52.52 86.18 53.96 74.0 29.76 2.01 SW 2.46 NW 8.72 NW x x Other     x x x x x 1.24 Clear
09/21/2021 07:03 AM 60.80 56.12 52.70 86.18 53.96 74.0 29.76 2.91 NW 1.12 W 8.72 NW x x Other     x x x x x 1.24 Clear
09/21/2021 07:04 AM 60.80 56.12 52.70 86.18 53.96 74.0 29.76 2.91 NW 2.91 W 8.72 NW x x Other     x x x x x 1.24 Clear
09/21/2021 07:06 AM 60.44 55.94 52.52 86.18 53.96 75.0 29.76 1.79 W 0.89 NW 8.72 NW x x Other     x x x x x 1.24 Clear
09/21/2021 07:07 AM 60.26 55.94 52.70 86.18 53.96 76.0 29.76 2.24 NW 4.03 NW 5.82 NW x x Other     x x x x x 1.24 Clear
09/21/2021 07:08 AM 60.44 55.94 52.88 86.18 53.96 75.0 29.76 3.36 NW 1.57 SW 5.82 NW x x Other     x x x x x 1.24 Clear
09/21/2021 07:09 AM 60.62 56.12 52.88 86.18 53.96 75.0 29.76 2.91 NW 5.37 NW 5.82 NW x x Other     x x x x x 1.24 Clear
09/21/2021 07:10 AM 60.80 56.12 52.88 86.18 53.96 75.0 29.76 3.80 W 6.49 NW 8.28 W x x Other     x x x x x 1.24 Clear
09/21/2021 07:11 AM 61.16 56.48 52.88 86.18 53.96 74.0 29.77 5.14 W 5.14 NW 9.40 NW x x Other     x x x x x 1.24 Clear
09/21/2021 07:12 AM 61.34 56.48 52.88 86.18 53.96 74.0 29.77 4.47 W 2.68 W 9.40 NW x x Other     x x x x x 1.24 Clear
09/21/2021 07:13 AM 61.34 56.48 52.88 86.18 53.96 73.0 29.77 3.80 NW 2.01 W 9.40 NW x x Other     x x x x x 1.24 Clear
09/21/2021 07:14 AM 61.52 56.48 52.88 86.18 53.96 73.0 29.77 2.91 W 2.01 W 9.40 NW x x Other     x x x x x 1.24 Clear
09/21/2021 07:15 AM 61.70 56.48 52.88 86.18 53.96 72.0 29.77 1.57 SE 1.34 SE 9.40 NW x x Other     x x x x x 1.24 Clear
09/21/2021 07:16 AM 61.34 56.30 52.70 86.18 53.96 73.0 29.77 1.34 SE 1.34 W 9.40 NW x x Other     x x x x x 1.24 Clear
09/21/2021 07:17 AM 61.16 56.30 52.70 86.18 53.96 73.0 29.77 2.68 W 4.03 NW 9.40 NW x x Other     x x x x x 1.24 Clear
09/21/2021 07:18 AM 61.52 56.48 52.88 86.18 53.96 73.0 29.77 3.58 W 0.89 NW 9.40 NW x x Other     x x x x x 1.24 Clear
09/21/2021 07:19 AM 61.70 56.48 52.88 86.18 53.96 73.0 29.77 3.13 W 4.03 W 9.40 NW x x Other     x x x x x 1.24 Clear
09/21/2021 07:20 AM 61.70 56.48 52.88 86.18 53.96 72.0 29.77 2.01 W 1.57 SW 9.40 NW x x Other     x x x x x 1.24 Clear
09/21/2021 07:21 AM 61.70 56.48 52.88 86.18 53.96 72.0 29.77 1.57 W 1.79 NW 7.61 NW x x Other     x x x x x 1.24 Clear
09/21/2021 07:22 AM 62.24 56.66 52.88 86.18 53.96 71.0 29.77 2.24 W 4.25 W 7.61 NW x x Other     x x x x x 1.24 Clear
09/21/2021 07:23 AM 62.60 57.02 53.06 86.18 53.96 70.0 29.77 3.58 W 4.25 W 7.61 NW x x Other     x x x x x 1.24 Clear
09/21/2021 07:24 AM 62.78 57.02 52.88 86.18 53.96 70.0 29.77 3.13 SW 0.45 NW 7.61 NW x x Other     x x x x x 1.24 Clear
09/21/2021 07:25 AM 62.60 56.84 52.70 86.18 53.96 70.0 29.77 2.24 SW 5.82 NW 7.61 NW x x Other     x x x x x 1.24 Clear
09/21/2021 07:26 AM 62.42 56.66 52.70 86.18 53.96 70.0 29.77 2.68 W 3.58 W 7.61 NW x x Other     x x x x x 1.24 Clear
09/21/2021 07:27 AM 62.24 56.66 52.70 86.18 53.96 71.0 29.77 3.58 NW 2.46 SW 7.61 NW x x Other     x x x x x 1.24 Clear
09/21/2021 07:28 AM 62.06 56.66 52.70 86.18 53.96 71.0 29.77 2.46 NW 1.79 W 7.61 NW x x Other     x x x x x 1.24 Clear
09/21/2021 07:29 AM 62.06 56.66 52.70 86.18 59.72 71.0 29.77 1.79 SW 3.80 NW 7.61 NW x x Other     x x x x x 1.24 Clear
09/21/2021 07:30 AM 62.24 56.84 52.88 86.18 59.72 71.0 29.77 1.79 SW 0.89 SW 7.61 NW x x Other     x x x x x 1.24 Clear
09/21/2021 07:31 AM 61.88 56.66 52.88 86.18 59.72 72.0 29.77 2.24 NW 4.70 W 7.83 NW x x Other     x x x x x 1.24 Clear
09/21/2021 07:32 AM 61.70 56.48 52.88 86.18 59.72 72.0 29.78 4.03 W 4.25 NW 7.83 NW x x Other     x x x x x 1.24 Clear
09/21/2021 07:33 AM 61.88 56.66 52.88 86.18 59.72 72.0 29.78 3.58 W 0.67 SW 7.83 NW x x Other     x x x x x 1.24 Clear
09/21/2021 07:34 AM 61.88 56.66 52.88 86.18 59.72 72.0 29.78 2.91 W 2.91 W 7.83 NW x x Other     x x x x x 1.24 Clear
09/21/2021 07:35 AM 61.88 56.66 52.88 86.18 59.72 72.0 29.78 3.58 NW 1.79 S 7.83 NW x x Other     x x x x x 1.24 Clear
09/21/2021 07:36 AM 62.06 56.66 52.88 86.18 59.72 72.0 29.78 2.46 NW 2.24 W 7.83 NW x x Other     x x x x x 1.24 Clear
09/21/2021 07:37 AM 62.24 56.84 52.88 86.18 59.72 71.0 29.78 1.57 SE 1.34 S 7.83 NW x x Other     x x x x x 1.24 Clear
09/21/2021 07:38 AM 62.42 56.84 52.88 86.18 59.72 71.0 29.78 2.24 SE 4.92 NW 7.83 NW x x Other     x x x x x 1.24 Clear
09/21/2021 07:39 AM 62.96 57.20 53.06 86.18 59.72 70.0 29.78 2.91 NW 3.80 W 7.83 NW x x Other     x x x x x 1.24 Clear
09/21/2021 07:40 AM 62.78 57.02 52.88 86.18 59.72 70.0 29.78 2.46 W 0.67 SE 7.16 W x x Other     x x x x x 1.24 Clear
09/21/2021 07:41 AM 62.60 57.02 52.88 86.18 59.72 70.0 29.78 2.01 W 1.12 N 6.49 NW x x Other     x x x x x 1.24 Clear
09/21/2021 07:42 AM 62.78 57.02 52.88 86.18 59.72 70.0 29.78 2.01 SW 4.92 NW 6.49 NW x x Other     x x x x x 1.24 Clear
09/21/2021 07:43 AM 62.78 57.02 53.06 86.18 59.72 70.0 29.78 2.01 W 0.67 SE 6.49 NW x x Other     x x x x x 1.24 Clear
09/21/2021 07:44 AM 62.78 57.02 53.06 86.18 59.72 70.0 29.78 1.79 W 1.79 SW 6.49 NW x x Other     x x x x x 1.24 Clear
09/21/2021 07:45 AM 62.78 57.02 52.88 86.18 59.72 70.0 29.78 1.79 SW 3.58 NW 6.49 NW x x Other     x x x x x 1.24 Clear
09/21/2021 07:46 AM 62.78 57.02 53.06 86.18 59.72 70.0 29.78 2.68 NW 1.57 SW 6.49 NW x x Other     x x x x x 1.24 Clear
09/21/2021 07:47 AM 62.60 56.84 52.88 86.18 59.72 70.0 29.78 2.91 W 2.24 NW 6.49 NW x x Other     x x x x x 1.24 Clear
09/21/2021 07:48 AM 62.60 57.02 53.06 86.18 59.72 71.0 29.78 3.13 W 6.49 NW 6.49 NW x x Other     x x x x x 1.24 Clear
09/21/2021 07:49 AM 62.60 57.02 53.06 86.18 59.72 71.0 29.78 2.91 W 0.67 SE 6.49 NW x x Other     x x x x x 1.24 Clear
09/21/2021 07:50 AM 62.60 57.02 53.06 86.18 59.72 71.0 29.78 1.79 W 1.12 S 6.49 NW x x Other     x x x x x 1.24 Clear
09/21/2021 07:51 AM 62.42 57.02 53.06 86.18 59.72 71.0 29.78 1.34 E 2.46 NW 6.49 NW x x Other     x x x x x 1.24 Clear
09/21/2021 07:52 AM 62.60 57.02 53.24 86.18 59.72 71.0 29.78 2.91 NW 1.34 N 6.93 NW x x Other     x x x x x 1.24 Clear
09/21/2021 07:53 AM 62.96 57.38 53.42 86.18 59.72 71.0 29.78 3.36 NW 4.92 E 6.93 NW x x Other     x x x x x 1.24 Clear
09/21/2021 07:54 AM 62.78 57.38 53.60 86.18 59.72 71.0 29.78 3.58 E 2.01 E 7.38 E x x Other     x x x x x 1.24 Clear
09/21/2021 07:55 AM 62.60 57.20 53.60 86.18 59.72 72.0 29.78 4.70 E 5.37 E 7.38 E x x Other     x x x x x 1.24 Clear
09/21/2021 07:56 AM 62.42 57.20 53.60 86.18 59.72 73.0 29.78 4.92 E 4.92 E 7.38 E x x Other     x x x x x 1.24 Clear
09/21/2021 07:57 AM 62.42 57.38 53.78 86.18 59.72 73.0 29.78 4.92 E 4.03 E 7.38 E x x Other     x x x x x 1.24 Clear
09/21/2021 07:58 AM 62.42 57.38 53.96 86.18 59.72 73.0 29.78 4.70 E 4.70 E 7.38 E x x Other     x x x x x 1.24 Clear
09/21/2021 07:59 AM 62.06 57.20 53.96 86.18 59.72 74.0 29.78 4.47 E 4.03 E 7.38 E x x Other     x x x x x 1.24 Clear
09/21/2021 08:00 AM 62.06 57.20 53.96 86.18 59.72 75.0 29.78 4.70 E 4.47 E 7.38 E x x Other     x x x x x 1.24 Clear
09/21/2021 08:01 AM 62.06 57.38 54.14 86.18 59.72 75.0 29.78 4.70 E 4.92 E 7.38 E x x Other     x x x x x 1.24 Clear
09/21/2021 08:02 AM 62.06 57.38 54.14 86.18 59.72 75.0 29.78 4.47 E 4.25 E 7.38 E x x Other     x x x x x 1.24 Clear
09/21/2021 08:03 AM 62.06 57.38 54.14 86.18 59.72 75.0 29.78 4.25 E 4.47 E 6.71 E x x Other     x x x x x 1.24 Clear
09/21/2021 08:04 AM 62.06 57.38 54.32 86.18 59.72 75.0 29.79 3.58 E 4.03 E 6.71 E x x Other     x x x x x 1.24 Clear
09/21/2021 08:05 AM 62.24 57.56 54.32 86.18 59.72 75.0 29.79 3.36 E 3.36 E 6.71 E x x Other     x x x x x 1.24 Clear
09/21/2021 08:06 AM 62.42 57.56 54.32 86.18 59.72 74.0 29.79 3.13 E 2.24 SE 6.71 E x x Other     x x x x x 1.24 Clear
09/21/2021 08:07 AM 62.96 57.74 54.32 86.18 59.72 73.0 29.79 2.24 E 3.36 NE 6.71 E x x Other     x x x x x 1.24 Clear
09/21/2021 08:08 AM 63.14 57.92 54.50 86.18 59.72 73.0 29.79 2.24 E 2.01 E 6.71 E x x Other     x x x x x 1.24 Clear
09/21/2021 08:09 AM 63.32 58.10 54.50 86.18 59.72 73.0 29.79 2.68 E 1.34 SW 5.82 NE x x Other     x x x x x 1.24 Clear
09/21/2021 08:10 AM 63.50 58.10 54.50 86.18 59.72 72.0 29.79 2.24 NE 1.57 W 5.59 E x x Other     x x x x x 1.24 Clear
09/21/2021 08:11 AM 63.50 58.28 54.68 86.18 59.72 73.0 29.79 1.57 W 3.13 W 5.59 E x x Other     x x x x x 1.24 Clear
09/21/2021 08:12 AM 63.50 58.28 54.68 86.18 59.72 72.0 29.79 1.57 W 0.89 N 5.59 E x x Other     x x x x x 1.24 Clear
09/21/2021 08:13 AM 63.68 58.28 54.68 86.18 59.72 72.0 29.79 1.34 N 1.34 SW 5.37 E x x Other     x x x x x 1.24 Clear
09/21/2021 08:14 AM 63.68 58.10 54.50 86.18 59.72 72.0 29.79 1.34 S 0.89 N 4.70 NE x x Other     x x x x x 1.24 Clear
09/21/2021 08:15 AM 63.50 58.10 54.50 86.18 59.72 72.0 29.79 2.01 W 2.46 NW 7.16 NW x x Other     x x x x x 1.24 Clear
09/21/2021 08:16 AM 63.68 58.10 54.50 86.18 59.72 72.0 29.79 3.58 W 3.58 NW 7.16 NW x x Other     x x x x x 1.24 Clear
09/21/2021 08:17 AM 63.86 58.28 54.68 86.18 59.72 71.0 29.79 3.58 NW 0.22 S 7.16 NW x x Other     x x x x x 1.24 Clear
09/21/2021 08:18 AM 64.04 58.46 54.86 86.18 59.72 72.0 29.79 2.91 NW 3.36 W 7.16 NW x x Other     x x x x x 1.24 Clear
09/21/2021 08:19 AM 64.04 58.64 55.04 86.18 59.72 72.0 29.79 2.91 W 2.24 W 7.16 NW x x Other     x x x x x 1.24 Clear
09/21/2021 08:20 AM 64.22 58.64 54.86 86.18 59.72 72.0 29.79 2.01 NW 0.89 SE 7.16 NW x x Other     x x x x x 1.24 Clear
09/21/2021 08:21 AM 64.22 58.64 54.86 86.18 59.72 71.0 29.79 1.57 SE 2.46 W 7.16 NW x x Other     x x x x x 1.24 Clear
09/21/2021 08:22 AM 64.40 58.46 54.50 86.18 59.72 70.0 29.79 2.46 W 3.58 W 7.16 NW x x Other     x x x x x 1.24 Clear
09/21/2021 08:23 AM 64.58 58.82 54.86 86.18 59.72 71.0 29.79 2.68 W 2.46 W 7.16 NW x x Other     x x x x x 1.24 Clear
09/21/2021 08:24 AM 64.58 59.00 55.22 86.18 59.72 71.0 29.79 3.36 W 1.79 SW 7.61 W x x Other     x x x x x 1.24 Clear
09/21/2021 08:25 AM 64.58 59.18 55.58 86.18 59.72 72.0 29.79 2.68 SE 2.24 E 7.61 W x x Other     x x x x x 1.24 Clear
09/21/2021 08:26 AM 64.58 59.18 55.58 86.18 59.72 72.0 29.79 2.46 E 4.25 E 7.61 W x x Other     x x x x x 1.24 Clear
09/21/2021 08:27 AM 64.58 59.18 55.58 86.18 59.72 72.0 29.79 2.91 NE 2.01 SE 7.61 W x x Other     x x x x x 1.24 Clear
09/21/2021 08:28 AM 64.76 59.36 55.76 86.18 59.72 73.0 29.79 2.91 N 4.47 E 7.61 W x x Other     x x x x x 1.24 Clear
09/21/2021 08:29 AM 64.58 59.36 55.94 86.18 59.72 73.0 29.79 3.36 NE 2.91 E 7.61 W x x Other     x x x x x 1.24 Clear
09/21/2021 08:30 AM 64.40 59.36 56.12 86.18 59.72 74.0 29.79 3.80 E 2.46 E 7.61 W x x Other     x x x x x 1.24 Clear
09/21/2021 08:31 AM 64.22 59.18 55.94 86.18 59.72 74.0 29.79 4.03 E 2.46 SW 7.61 W x x Other     x x x x x 1.24 Clear
09/21/2021 08:32 AM 64.40 59.18 55.76 86.18 59.72 73.0 29.79 2.46 E 1.34 E 7.61 W x x Other     x x x x x 1.24 Clear
09/21/2021 08:33 AM 64.76 59.18 55.40 86.18 59.72 72.0 29.79 1.79 SE 1.34 E 7.61 W x x Other     x x x x x 1.24 Clear
09/21/2021 08:34 AM 65.12 59.36 55.76 86.18 59.72 71.0 29.79 1.79 E 1.79 NE 6.71 E x x Other     x x x x x 1.24 Clear
09/21/2021 08:35 AM 65.30 59.54 55.76 86.18 59.72 71.0 29.79 1.57 E 0.45 S 6.71 E x x Other     x x x x x 1.24 Clear
09/21/2021 08:36 AM 65.48 59.72 56.12 86.18 59.72 71.0 29.79 2.46 E 4.03 E 6.71 E x x Other     x x x x x 1.24 Clear
09/21/2021 08:37 AM 65.30 59.72 56.12 86.18 59.72 72.0 29.79 3.36 E 3.36 E 6.71 E x x Other     x x x x x 1.24 Clear
09/21/2021 08:38 AM 65.12 59.54 55.94 86.18 59.72 72.0 29.79 3.13 E 3.80 NE 6.71 E x x Other     x x x x x 1.24 Clear
09/21/2021 08:39 AM 65.48 59.72 56.12 86.18 59.72 71.0 29.79 2.46 E 0.67 NW 6.71 E x x Other     x x x x x 1.24 Clear
09/21/2021 08:40 AM 65.66 59.72 55.94 86.18 59.72 71.0 29.79 2.01 W 0.45 NW 5.37 NW x x Other     x x x x x 1.24 Clear
09/21/2021 08:41 AM 65.84 59.90 56.12 86.18 59.72 70.0 29.79 2.01 W 2.01 N 5.59 W x x Other     x x x x x 1.24 Clear
09/21/2021 08:42 AM 66.02 59.90 56.12 86.18 59.72 70.0 29.79 2.46 W 4.47 NE 5.59 W x x Other     x x x x x 1.24 Clear
09/21/2021 08:43 AM 66.02 59.90 56.12 86.18 59.72 70.0 29.79 2.68 E 4.25 E 5.59 W x x Other     x x x x x 1.24 Clear
09/21/2021 08:44 AM 66.20 59.90 55.94 86.18 59.72 70.0 29.79 4.03 E 3.58 E 5.59 W x x Other     x x x x x 1.24 Clear
09/21/2021 08:45 AM 66.02 60.08 56.30 86.18 59.72 70.0 29.79 3.80 E 3.13 E 7.16 E x x Other     x x x x x 1.24 Clear
09/21/2021 08:46 AM 66.02 60.44 56.84 86.18 59.72 72.0 29.79 3.58 E 3.80 E 7.16 E x x Other     x x x x x 1.24 Clear
09/21/2021 08:47 AM 66.02 60.26 56.48 86.18 59.72 71.0 29.79 3.36 E 1.57 NE 7.16 E x x Other     x x x x x 1.24 Clear
09/21/2021 08:48 AM 66.02 60.26 56.48 86.18 59.72 71.0 29.79 3.13 E 3.58 E 7.16 E x x Other     x x x x x 1.24 Clear
09/21/2021 08:49 AM 66.02 60.26 56.66 86.18 59.72 71.0 29.79 3.36 NE 4.92 E 7.16 E x x Other     x x x x x 1.24 Clear
09/21/2021 08:50 AM 66.20 60.44 56.66 86.18 59.72 71.0 29.79 3.80 NE 3.13 NE 7.16 E x x Other     x x x x x 1.24 Clear
09/21/2021 08:51 AM 66.20 60.26 56.48 86.18 59.72 71.0 29.79 3.80 E 3.80 E 7.16 E x x Other     x x x x x 1.24 Clear
09/21/2021 08:52 AM 66.38 60.26 56.30 86.18 59.72 70.0 29.80 3.58 E 2.01 NE 7.16 E x x Other     x x x x x 1.24 Clear
09/21/2021 08:53 AM 66.38 60.08 56.12 86.18 59.72 69.0 29.79 3.58 E 3.36 E 7.16 E x x Other     x x x x x 1.24 Clear
09/21/2021 08:54 AM 66.74 60.26 56.30 86.18 59.72 69.0 29.79 3.36 E 4.47 E 5.82 E x x Other     x x x x x 1.24 Clear
09/21/2021 08:55 AM 66.92 60.44 56.30 86.18 59.72 69.0 29.79 4.03 E 4.03 E 6.49 E x x Other     x x x x x 1.24 Clear
09/21/2021 08:56 AM 66.92 60.62 56.48 86.18 59.72 69.0 29.79 3.58 E 3.13 E 6.49 E x x Other     x x x x x 1.24 Clear
09/21/2021 08:57 AM 67.10 60.26 56.12 86.18 59.72 68.0 29.80 3.36 E 3.58 E 6.49 E x x Other     x x x x x 1.24 Clear
09/21/2021 08:58 AM 67.28 60.62 56.30 86.18 59.72 68.0 29.80 3.80 E 1.57 NE 6.49 E x x Other     x x x x x 1.24 Clear
09/21/2021 08:59 AM 67.46 60.80 56.66 86.18 59.72 68.0 29.79 3.36 E 4.70 E 6.49 E x x Other     x x x x x 1.24 Clear
09/21/2021 09:00 AM 67.64 60.80 56.48 86.18 59.72 67.0 29.80 4.03 E 4.70 E 6.49 E x x Other     x x x x x 1.24 Clear
09/21/2021 09:01 AM 67.64 60.62 56.30 86.18 59.72 67.0 29.80 4.25 E 2.91 E 6.49 E x x Other     x x x x x 1.24 Clear
09/21/2021 09:02 AM 67.64 60.80 56.30 86.18 59.72 67.0 29.80 3.58 E 1.34 NE 6.49 E x x Other     x x x x x 1.24 Clear
09/21/2021 09:03 AM 67.82 60.62 56.30 86.18 59.72 66.0 29.80 3.36 E 4.03 E 6.49 E x x Other     x x x x x 1.24 Clear
09/21/2021 09:04 AM 67.82 60.62 56.12 86.18 59.72 66.0 29.80 3.58 E 3.36 SE 6.26 E x x Other     x x x x x 1.24 Clear
09/21/2021 09:05 AM 68.00 60.62 55.94 86.18 59.72 65.0 29.80 3.80 E 2.91 NE 7.16 E x x Other     x x x x x 1.24 Clear
09/21/2021 09:06 AM 68.00 60.62 55.94 86.18 59.72 65.0 29.80 4.70 E 4.92 E 8.28 E x x Other     x x x x x 1.24 Clear
09/21/2021 09:07 AM 68.18 60.26 55.04 86.18 59.72 62.0 29.79 5.14 E 5.14 E 8.28 E x x Other     x x x x x 1.24 Clear
09/21/2021 09:08 AM 68.36 60.44 55.40 86.18 59.72 63.0 29.80 4.70 E 4.03 E 8.28 E x x Other     x x x x x 1.24 Clear
09/21/2021 09:09 AM 68.54 60.44 55.40 86.18 59.72 63.0 29.80 3.58 E 3.13 NE 8.28 E x x Other     x x x x x 1.24 Clear
09/21/2021 09:10 AM 68.54 60.62 55.58 86.18 59.72 63.0 29.80 2.91 E 3.80 E 8.28 E x x Other     x x x x x 1.24 Clear
09/21/2021 09:11 AM 68.54 60.62 55.58 86.18 59.72 63.0 29.80 3.13 E 3.13 E 8.28 E x x Other     x x x x x 1.24 Clear
09/21/2021 09:12 AM 68.72 60.62 55.58 86.18 59.72 63.0 29.80 2.91 E 2.68 E 8.28 E x x Other     x x x x x 1.24 Clear
09/21/2021 09:13 AM 68.90 60.80 55.58 86.18 59.72 62.0 29.80 2.68 E 4.47 E 8.28 E x x Other     x x x x x 1.24 Clear
09/21/2021 09:14 AM 69.08 60.80 55.76 86.18 59.72 62.0 29.80 2.91 E 0.89 W 8.28 E x x Other     x x x x x 1.24 Clear
09/21/2021 09:15 AM 69.26 61.16 56.12 86.18 59.72 63.0 29.80 2.01 W 0.22 W 6.49 E x x Other     x x x x x 1.24 Clear
09/21/2021 09:16 AM 69.26 60.98 55.58 86.18 59.72 61.0 29.80 1.79 W 2.46 SW 6.49 E x x Other     x x x x x 1.24 Clear
09/21/2021 09:17 AM 69.44 60.62 54.86 86.18 59.72 60.0 29.80 1.79 SE 1.57 SW 5.37 E x x Other     x x x x x 1.24 Clear
09/21/2021 09:18 AM 69.44 60.62 54.86 86.18 59.72 60.0 29.80 1.57 SE 3.36 W 5.37 E x x Other     x x x x x 1.24 Clear
09/21/2021 09:19 AM 69.44 60.44 54.50 86.18 59.72 59.0 29.80 2.68 W 2.91 NW 6.93 W x x Other     x x x x x 1.24 Clear
09/21/2021 09:20 AM 69.44 60.26 54.50 86.18 59.72 58.0 29.80 2.91 W 2.68 N 6.93 W x x Other     x x x x x 1.24 Clear
09/21/2021 09:21 AM 69.44 60.26 54.14 86.18 59.72 58.0 29.80 2.01 N 1.79 SW 6.93 W x x Other     x x x x x 1.24 Clear
09/21/2021 09:22 AM 69.44 60.62 54.32 86.18 59.72 58.0 29.80 1.79 SE 4.25 E 6.93 W x x Other     x x x x x 1.24 Clear
09/21/2021 09:23 AM 69.62 60.62 54.68 86.18 59.72 59.0 29.80 2.01 SE 1.12 SE 6.93 W x x Other     x x x x x 1.24 Clear
09/21/2021 09:24 AM 69.80 60.44 54.50 86.18 59.72 58.0 29.80 1.79 SE 1.12 W 6.93 W x x Other     x x x x x 1.24 Clear
09/21/2021 09:25 AM 69.80 60.44 54.50 86.18 59.72 58.0 29.80 1.34 W 0.89 E 6.93 W x x Other     x x x x x 1.24 Clear
09/21/2021 09:26 AM 69.80 60.62 54.50 86.18 59.72 58.0 29.80 1.34 E 2.24 E 6.93 W x x Other     x x x x x 1.24 Clear
09/21/2021 09:27 AM 69.80 60.62 54.68 86.18 59.72 58.0 29.80 1.57 E 2.68 NW 6.93 W x x Other     x x x x x 1.24 Clear
09/21/2021 09:28 AM 69.80 60.62 54.68 86.18 59.72 58.0 29.80 2.46 W 4.25 W 6.93 W x x Other     x x x x x 1.24 Clear
09/21/2021 09:29 AM 69.80 60.80 55.04 86.18 59.72 59.0 29.80 2.68 W 1.12 SE 5.14 W x x Other     x x x x x 1.24 Clear
09/21/2021 09:30 AM 69.98 60.80 55.04 86.18 59.72 58.0 29.80 1.57 SE 3.13 SE 5.14 W x x Other     x x x x x 1.24 Clear
09/21/2021 09:31 AM 69.98 60.80 55.04 86.18 59.72 58.0 29.80 2.01 S 4.47 W 5.14 W x x Other     x x x x x 1.24 Clear
09/21/2021 09:32 AM 69.98 60.80 55.04 86.18 59.72 59.0 29.80 2.91 W 2.01 SW 6.49 W x x Other     x x x x x 1.24 Clear
09/21/2021 09:33 AM 69.98 60.80 55.04 86.18 59.72 59.0 29.80 2.91 W 1.57 W 6.49 W x x Other     x x x x x 1.24 Clear
09/21/2021 09:34 AM 69.98 60.80 55.04 86.18 59.72 58.0 29.80 2.01 W 5.14 W 6.49 W x x Other     x x x x x 1.24 Clear
09/21/2021 09:35 AM 69.98 60.98 55.04 86.18 59.72 59.0 29.80 1.79 W 2.01 NW 6.49 W x x Other     x x x x x 1.24 Clear
09/21/2021 09:36 AM 70.16 61.16 55.40 86.18 59.72 60.0 29.80 2.46 NW 2.68 NW 6.49 W x x Other     x x x x x 1.24 Clear
09/21/2021 09:37 AM 70.34 61.16 55.58 86.18 59.72 59.0 29.81 2.24 W 2.24 NW 6.49 W x x Other     x x x x x 1.24 Clear
09/21/2021 09:38 AM 70.34 61.16 55.58 86.18 59.72 59.0 29.81 2.01 W 0.89 NW 6.49 W x x Other     x x x x x 1.24 Clear
09/21/2021 09:39 AM 70.34 61.34 55.58 86.18 59.72 59.0 29.81 2.01 W 0.89 E 6.49 W x x Other     x x x x x 1.24 Clear
09/21/2021 09:40 AM 70.52 61.34 55.58 86.18 59.72 59.0 29.81 1.79 W 2.46 NW 6.49 W x x Other     x x x x x 1.24 Clear
09/21/2021 09:41 AM 70.52 61.34 55.40 86.18 59.72 59.0 29.81 2.24 W 2.24 W 6.04 W x x Other     x x x x x 1.24 Clear
09/21/2021 09:42 AM 70.52 61.34 55.58 86.18 59.72 59.0 29.81 1.79 SW 2.01 W 6.04 W x x Other     x x x x x 1.24 Clear
09/21/2021 09:43 AM 70.52 61.34 55.58 86.18 59.72 59.0 29.81 1.79 SE 1.34 SE 6.04 W x x Other     x x x x x 1.24 Clear
09/21/2021 09:44 AM 70.52 61.34 55.58 86.18 59.72 59.0 29.81 2.24 W 2.24 SW 6.04 W x x Other     x x x x x 1.24 Clear
09/21/2021 09:45 AM 70.70 61.52 55.76 86.18 59.72 59.0 29.81 2.91 W 2.68 NW 6.04 W x x Other     x x x x x 1.24 Clear
09/21/2021 09:46 AM 70.88 61.52 55.76 86.18 59.72 59.0 29.81 2.46 W 0.89 W 6.04 W x x Other     x x x x x 1.24 Clear
09/21/2021 09:47 AM 70.88 61.52 55.58 86.18 59.72 58.0 29.81 1.34 SW 2.46 W 5.59 W x x Other     x x x x x 1.24 Clear
09/21/2021 09:48 AM 70.88 61.52 55.58 86.18 59.72 58.0 29.81 2.01 SW 2.46 NW 5.59 W x x Other     x x x x x 1.24 Clear
09/21/2021 09:49 AM 70.88 61.34 55.40 86.18 59.72 58.0 29.81 2.24 NW 1.57 W 5.59 W x x Other     x x x x x 1.24 Clear
09/21/2021 09:50 AM 70.88 61.52 55.76 86.18 59.72 59.0 29.81 2.24 NW 1.79 W 5.59 W x x Other     x x x x x 1.24 Clear
09/21/2021 09:51 AM 70.88 61.52 55.58 86.18 59.72 58.0 29.81 2.01 W 1.34 NW 5.59 W x x Other     x x x x x 1.24 Clear
09/21/2021 09:52 AM 71.06 61.70 55.76 86.18 59.72 58.0 29.81 1.57 SW 0.89 W 5.59 W x x Other     x x x x x 1.24 Clear
09/21/2021 09:53 AM 71.24 61.70 55.76 86.18 59.72 58.0 29.81 1.57 NW 0.45 S 5.59 W x x Other     x x x x x 1.24 Clear
09/21/2021 09:54 AM 71.42 61.88 56.12 86.18 59.72 58.0 29.81 1.79 W 0.89 SW 5.59 NW x x Other     x x x x x 1.24 Clear
09/21/2021 09:55 AM 71.42 62.06 56.48 86.18 59.72 59.0 29.81 2.24 SW 1.34 SW 5.82 W x x Other     x x x x x 1.24 Clear
09/21/2021 09:56 AM 71.42 61.70 55.58 86.18 59.72 57.0 29.81 2.01 SW 1.34 E 5.82 W x x Other     x x x x x 1.24 Clear
09/21/2021 09:57 AM 71.42 62.06 56.12 86.18 59.72 58.0 29.81 1.57 SW 3.36 SW 5.82 W x x Other     x x x x x 1.24 Clear
09/21/2021 09:58 AM 71.60 61.88 55.76 86.18 59.72 57.0 29.81 1.79 W 2.46 W 5.82 W x x Other     x x x x x 1.24 Clear
09/21/2021 09:59 AM 71.78 62.24 56.30 86.18 59.72 58.0 29.81 2.01 SE 2.46 SE 5.82 W x x Other     x x x x x 1.24 Clear
09/21/2021 10:00 AM 71.96 61.88 55.76 86.18 59.72 57.0 29.81 1.79 SE 0.45 NE 5.82 W x x Other     x x x x x 1.24 Clear
09/21/2021 10:01 AM 71.96 61.88 55.58 86.18 59.72 56.0 29.81 1.12 SW 2.01 NW 5.82 W x x Other     x x x x x 1.24 Clear
09/21/2021 10:02 AM 71.96 61.88 55.76 86.18 59.72 57.0 29.81 2.24 N 6.49 NW 6.49 NW x x Other     x x x x x 1.24 Clear
09/21/2021 10:03 AM 71.96 62.06 56.12 86.18 59.72 57.0 29.81 3.36 W 3.58 E 6.49 NW x x Other     x x x x x 1.24 Clear
09/21/2021 10:04 AM 72.32 62.06 55.58 86.18 59.72 55.0 29.81 2.68 SE 1.34 NE 6.49 NW x x Other     x x x x x 1.24 Clear
09/21/2021 10:05 AM 72.32 61.70 55.22 86.18 59.72 54.0 29.81 2.01 SE 1.57 E 6.49 NW x x Other     x x x x x 1.24 Clear
09/21/2021 10:06 AM 72.32 61.88 55.22 86.18 59.72 55.0 29.81 1.12 SE 0.45 NW 6.49 NW x x Other     x x x x x 1.24 Clear
09/21/2021 10:07 AM 72.32 61.88 55.22 86.18 59.72 55.0 29.81 1.12 S 1.12 S 6.49 NW x x Other     x x x x x 1.24 Clear
09/21/2021 10:08 AM 72.32 62.24 56.12 86.18 59.72 57.0 29.81 2.01 E 1.79 SE 6.49 NW x x Other     x x x x x 1.24 Clear
09/21/2021 10:09 AM 72.32 61.88 55.40 86.18 59.72 55.0 29.81 2.68 E 3.36 W 6.49 NW x x Other     x x x x x 1.24 Clear
09/21/2021 10:10 AM 72.32 61.88 55.40 86.18 59.72 55.0 29.81 2.91 W 2.68 E 6.49 NW x x Other     x x x x x 1.24 Clear
09/21/2021 10:11 AM 72.50 62.06 55.58 86.18 59.72 55.0 29.81 2.46 E 1.79 S 6.49 NW x x Other     x x x x x 1.24 Clear
09/21/2021 10:12 AM 72.68 61.70 55.04 86.18 59.72 54.0 29.81 2.01 SE 1.57 SW 5.59 W x x Other     x x x x x 1.24 Clear
09/21/2021 10:13 AM 72.86 61.70 54.68 86.18 59.72 53.0 29.81 2.01 SW 3.13 W 5.59 W x x Other     x x x x x